GFSFLT1_500_spd_000.txt.gz
Wind_Speed
12 15 16 17 20 24 23 21 23 29 32 40 45 41 40 34 35 40 43 48 50 49 47 47 50 52 53 55 57 59 61 63
14 17 19 21 19 22 25 25 30 38 47 53 52 51 43 41 42 46 51 49 46 47 49 53 56 58 60 63 66 69 70 72
16 20 19 20 24 25 30 36 42 46 50 52 52 50 48 48 45 44 44 45 46 51 54 58 60 63 66 70 74 76 78 79
17 18 20 28 33 37 37 41 44 46 50 50 44 42 41 42 42 43 43 48 53 57 61 63 65 68 70 75 77 79 83 84
22 21 26 30 37 37 40 42 49 50 49 47 45 42 42 42 43 46 50 54 59 62 62 63 68 74 78 80 83 88 91 94
26 31 36 37 33 39 42 52 52 49 47 45 43 42 44 47 49 52 55 57 59 61 66 71 78 82 85 87 92 95 97 96
26 34 39 41 40 44 48 41 42 43 41 40 42 44 46 47 51 55 59 62 65 71 76 83 88 89 91 93 96 97 96 95
25 29 38 39 42 43 39 43 41 41 42 45 46 48 51 54 58 62 64 67 73 78 82 86 87 90 94 97 98 101 102 101
22 28 32 37 40 41 43 41 42 46 49 50 50 51 53 57 61 64 68 72 77 81 85 89 93 95 99 101 101 101 97 87
23 27 32 37 36 37 40 42 41 43 46 48 51 55 58 61 63 67 73 77 80 85 91 95 99 101 101 102 104 99 80 72
26 28 29 32 35 39 43 47 50 52 53 54 57 59 62 64 68 73 77 82 87 91 95 97 100 101 102 100 85 75 66 62
30 33 36 38 41 44 47 51 54 57 58 59 61 63 65 70 74 77 81 86 89 93 94 95 99 100 93 77 65 59 57 51
37 40 42 44 47 49 51 54 57 58 60 62 64 66 70 74 76 80 85 87 91 92 96 98 99 89 73 60 54 45 40 41
40 43 45 47 49 51 54 57 58 61 62 63 66 70 73 75 78 83 86 90 92 98 100 99 86 68 52 44 36 32 33 39
42 45 47 49 51 53 56 59 60 60 62 65 69 72 75 77 82 86 88 90 97 99 97 83 65 48 37 34 35 33 35 39
45 47 50 52 53 55 59 58 59 60 64 68 71 74 77 80 84 87 89 96 96 95 83 65 49 39 34 35 35 36 39 44
47 51 53 54 55 57 58 58 59 62 65 69 73 76 79 83 86 87 97 97 94 84 67 51 41 35 33 36 37 39 42 46
50 55 56 56 56 59 59 58 61 64 69 72 75 78 82 86 88 95 97 93 84 69 53 42 37 33 35 37 38 41 44 48
52 56 55 56 58 59 58 60 64 69 71 74 78 81 84 87 93 96 92 82 69 56 44 38 34 33 36 36 38 41 45 47

GFSFLT1_500_spd_003.txt.gz
Wind_Speed
11 12 13 14 17 20 19 20 18 29 33 35 40 45 46 48 50 44 40 43 43 42 42 42 42 45 49 51 53 55 58 62
12 14 17 20 18 20 21 25 34 39 43 44 45 47 52 53 48 40 37 38 39 40 41 44 47 51 55 57 59 62 65 68
14 18 17 21 21 25 29 34 39 40 44 46 51 55 53 49 43 40 39 39 40 43 47 51 56 59 59 60 63 66 70 72
14 17 21 23 26 31 35 41 35 39 44 48 51 47 45 42 41 42 44 46 48 51 56 59 60 58 61 66 70 72 77 80
15 18 23 25 34 35 38 42 43 47 50 48 50 50 47 46 47 48 49 50 52 55 58 60 61 65 70 74 78 82 88 91
21 24 25 26 30 34 36 42 42 44 45 46 44 42 43 45 47 49 51 54 56 59 62 65 70 75 78 82 86 90 93 96
23 26 26 26 32 36 35 39 43 45 48 48 48 49 51 53 54 54 54 57 61 63 67 72 76 79 83 87 91 95 98 100
19 22 23 25 28 32 35 38 42 45 47 48 50 51 51 52 54 57 59 61 64 68 73 77 80 84 89 93 97 98 101 103
15 19 22 26 29 32 35 38 42 45 47 50 51 52 53 55 58 60 62 65 69 73 76 79 83 88 92 95 100 105 104 101
16 20 25 28 31 35 38 40 43 46 50 52 55 57 58 59 60 62 65 69 72 75 79 83 88 92 95 101 105 101 91 78
19 23 27 30 32 35 39 42 47 49 51 55 58 58 60 60 61 64 67 71 74 79 83 86 90 94 100 104 99 85 71 58
24 28 31 35 38 42 46 50 52 53 53 55 58 60 59 60 63 66 69 74 79 82 86 90 94 99 102 97 79 63 50 40
29 33 36 40 42 46 50 51 53 54 55 58 60 60 61 63 65 70 74 78 83 87 89 93 98 100 93 73 57 43 38 37
36 38 39 42 44 49 51 53 55 55 58 61 62 62 63 66 70 74 77 82 86 88 91 97 98 89 70 56 43 37 37 36
39 40 42 44 47 51 53 54 56 58 60 63 63 64 66 69 73 76 81 85 86 91 98 97 85 68 56 44 38 34 36 36
44 44 46 48 51 53 54 56 58 59 62 63 63 65 68 71 76 80 82 86 91 97 96 84 68 57 45 39 35 34 35 36
48 48 49 52 55 55 57 58 59 61 62 63 64 67 70 74 78 81 84 91 96 95 83 69 58 45 39 35 32 33 35 36
51 51 52 56 56 57 58 59 60 62 63 64 66 69 73 77 80 82 89 94 93 82 69 59 47 38 35 33 33 35 35 36
52 53 54 56 57 58 59 59 61 63 63 65 69 73 76 79 81 87 93 91 79 70 61 49 38 34 32 32 33 34 36 37

GFSFLT1_500_spd_006.txt.gz
Wind_Speed
11 12 14 15 16 18 18 19 21 24 30 38 42 44 45 46 47 44 40 40 39 38 38 41 43 44 45 46 49 52 56 56
10 13 16 18 20 19 17 20 25 30 36 36 37 39 46 48 44 38 35 35 36 39 41 45 47 50 51 54 58 61 61 61
12 15 17 19 20 20 23 28 33 34 37 40 41 45 48 47 45 44 44 45 47 49 50 52 53 55 57 58 58 59 64 68
13 14 15 19 22 22 26 32 30 32 35 38 41 42 43 46 48 49 48 48 49 51 52 53 54 56 58 61 64 67 70 73
13 17 18 19 20 21 23 23 26 31 34 35 38 42 45 47 49 50 52 53 52 52 54 56 59 60 62 66 69 72 74 79
17 17 19 17 16 17 19 22 27 30 33 37 40 44 46 48 50 52 52 53 55 57 57 58 60 64 67 70 73 78 82 86
16 15 13 13 16 19 22 25 29 34 38 42 45 48 51 52 53 55 56 56 57 58 59 61 64 67 71 76 81 85 89 93
11 11 12 15 19 22 25 28 32 37 41 45 47 50 51 51 54 56 58 58 58 59 62 65 69 74 78 83 87 92 94 96
11 14 16 20 24 27 29 31 34 38 41 44 48 50 52 54 57 59 60 61 61 62 65 69 74 78 83 88 91 93 98 103
14 17 21 25 28 31 33 35 38 41 43 47 53 56 56 58 59 61 61 61 61 64 68 74 78 82 86 89 94 100 104 101
19 22 26 29 32 35 36 38 42 44 47 48 54 57 59 59 61 62 60 61 64 68 72 77 81 85 90 95 101 103 88 72
24 28 30 34 37 39 40 42 46 49 52 54 57 59 61 61 62 62 63 65 68 73 77 82 85 88 95 102 100 81 67 59
31 34 37 40 43 45 45 47 50 53 56 58 60 62 62 62 64 64 66 70 74 78 81 84 88 95 100 90 75 66 56 46
36 39 43 46 49 50 51 52 54 56 58 60 62 63 62 65 65 67 70 74 78 81 84 87 95 98 83 73 66 56 45 42
42 45 48 51 53 54 55 56 57 58 59 61 63 63 64 66 67 69 74 77 80 83 86 94 95 81 72 65 56 45 41 38
45 48 51 54 55 56 57 58 58 59 60 63 63 64 65 66 68 73 76 79 83 84 91 95 81 73 66 58 46 40 37 35
49 51 54 57 57 58 58 57 58 60 62 63 64 64 64 67 70 76 78 83 85 88 95 83 75 67 59 48 41 38 36 35
51 53 55 57 58 58 56 57 58 60 62 64 63 63 66 68 74 77 82 85 87 93 84 76 70 61 51 42 38 36 36 35
52 54 56 57 56 54 55 57 59 62 62 62 63 65 67 71 76 79 85 86 91 87 77 71 64 54 45 39 36 35 33 33

GFSFLT1_500_spd_009.txt.gz
Wind_Speed
9 10 11 11 12 13 17 17 15 15 22 28 32 34 37 38 40 44 46 44 42 42 42 41 44 46 49 51 53 54 54 56
10 11 12 14 16 18 19 18 21 25 30 31 32 31 32 36 39 42 42 41 42 44 47 50 52 52 55 55 55 55 57 58
11 13 15 16 18 21 22 23 25 28 26 26 28 30 32 34 36 38 43 46 49 50 50 51 53 54 55 56 58 58 58 59
16 17 17 18 21 23 25 24 25 22 22 25 28 31 35 38 40 42 44 46 48 51 53 54 54 55 55 56 56 57 59 61
20 21 20 21 24 23 20 17 18 21 24 28 31 35 38 41 45 47 50 51 52 54 56 57 55 54 55 56 57 60 65 69
23 22 23 24 19 16 16 18 21 24 27 30 33 37 41 44 46 48 51 53 55 57 58 58 57 56 58 59 62 67 72 76
25 24 24 19 15 16 19 21 23 27 32 35 38 42 46 49 50 51 54 57 58 58 59 59 59 60 62 66 70 73 78 82
25 22 17 15 16 20 23 25 28 32 36 39 42 46 50 53 53 56 58 59 60 61 62 62 63 64 68 72 77 80 84 87
17 17 17 18 22 25 28 31 34 36 40 42 45 49 52 55 55 58 60 63 62 62 64 64 65 69 73 78 81 84 88 95
16 18 21 24 28 32 35 38 40 42 45 48 50 51 54 57 58 60 62 63 63 65 66 66 69 73 78 81 83 88 96 99
22 25 27 32 35 38 41 44 45 48 51 53 56 57 58 58 59 62 64 65 65 67 67 70 74 77 80 81 88 97 99 88
27 30 34 37 40 44 47 49 51 54 56 57 59 61 59 61 61 64 65 65 67 66 69 73 77 79 81 88 96 97 87 81
32 34 38 42 45 48 50 53 55 57 59 60 62 61 61 62 63 65 66 66 66 68 71 76 77 80 86 91 98 91 79 72
37 40 43 46 49 51 54 56 57 60 61 63 63 60 61 62 65 66 66 66 68 70 73 78 80 85 92 98 92 81 71 61
42 45 47 50 52 55 57 58 58 61 62 62 61 59 62 64 66 66 66 67 70 72 77 82 85 89 98 95 82 72 62 51
48 51 52 54 56 57 58 58 60 61 60 59 59 60 62 65 66 65 67 70 72 75 78 85 89 95 96 87 75 64 54 46
52 53 55 55 56 56 57 57 58 57 58 58 59 61 63 68 65 67 70 73 75 77 82 91 94 98 88 80 68 57 48 43
55 54 53 53 54 54 55 55 54 55 56 59 61 61 64 66 65 68 72 78 77 80 85 93 95 97 81 74 61 50 44 41
52 53 52 51 52 51 51 52 53 56 57 56 59 64 63 64 66 71 75 76 79 83 86 93 95 89 74 64 52 44 39 37

GFSFLT1_500_spd_012.txt.gz
Wind_Speed
4 6 8 10 13 15 18 18 19 19 19 21 26 24 21 23 26 30 33 37 38 41 41 41 44 47 50 52 53 53 52 51
6 7 11 13 16 16 18 18 19 21 21 24 19 19 21 26 30 33 36 38 39 42 45 48 50 51 53 55 56 56 52 50
6 10 13 16 16 19 22 22 24 24 21 17 19 21 25 29 32 35 38 41 44 46 47 49 51 53 54 56 57 56 52 52
12 15 19 21 20 23 26 24 20 16 17 20 23 27 31 34 35 37 40 42 45 48 50 52 54 55 56 57 57 55 55 55
18 20 23 23 23 26 27 16 16 18 20 24 28 32 35 38 41 43 46 49 51 53 54 57 59 60 59 59 57 56 57 61
24 24 25 25 27 27 17 16 18 21 25 29 33 37 41 44 47 49 51 53 54 56 57 59 60 60 60 60 58 59 62 66
31 31 28 29 26 19 18 20 23 26 30 34 38 41 46 49 51 53 55 56 56 57 58 60 61 60 61 59 60 64 68 71
34 29 26 21 17 19 22 25 29 32 35 39 43 46 49 52 55 57 60 61 61 60 60 62 63 62 59 61 64 69 72 73
25 21 17 18 21 24 28 32 35 37 42 45 49 51 54 56 57 59 60 60 62 61 62 64 63 60 60 64 68 72 75 81
15 17 20 22 26 30 34 38 41 43 47 50 53 56 58 59 60 61 60 58 59 61 64 65 63 62 66 68 72 72 80 88
20 24 26 28 31 35 39 44 46 47 50 52 56 58 60 61 61 60 59 59 61 63 65 63 63 67 70 74 73 77 84 95
25 29 32 34 36 39 42 48 50 50 52 56 58 60 61 62 61 60 58 60 62 64 62 62 65 68 74 74 79 77 82 95
31 32 35 39 42 45 46 51 54 54 56 57 59 60 60 60 60 59 59 61 63 62 64 66 67 70 75 75 79 81 89 97
37 39 41 42 47 50 52 54 57 57 56 58 59 60 56 59 59 60 61 63 62 66 69 69 70 73 78 79 86 87 93 96
42 47 51 51 52 53 54 55 55 56 55 59 59 57 56 59 61 61 62 65 67 72 72 71 72 78 82 83 89 91 92 87
48 51 56 58 56 55 53 54 54 54 54 56 55 56 59 63 61 60 66 67 73 78 76 73 74 79 83 83 84 85 88 79
50 51 54 55 56 57 55 53 52 51 52 53 56 59 62 59 63 64 66 68 79 90 86 79 82 82 77 87 85 84 80 66
52 52 54 55 56 55 51 50 51 49 52 56 59 58 58 59 66 67 71 79 85 91 88 85 81 73 79 79 81 78 65 56
55 55 54 51 50 50 50 48 50 54 56 58 56 58 63 66 64 66 68 77 86 89 85 72 73 73 74 73 74 64 56 51

GFSFLT1_500_spd_015.txt.gz
Wind_Speed
2 2 1 5 7 11 14 16 19 18 18 18 18 17 13 16 19 23 26 29 33 35 37 39 41 43 45 47 48 50 51 51
5 3 5 8 8 14 16 16 17 17 16 14 11 14 17 21 26 29 31 34 37 40 42 44 47 48 49 50 51 52 52 53
7 9 8 11 14 14 17 19 18 11 8 12 14 18 22 27 31 34 37 41 43 45 47 50 52 52 52 53 54 55 56 56
10 14 18 19 19 17 19 23 15 11 13 16 18 22 26 30 35 38 42 44 46 49 52 55 56 58 58 58 56 56 55 53
11 17 23 27 28 23 20 17 18 16 20 23 27 30 33 36 39 42 45 48 51 54 56 58 59 59 58 57 57 57 53 52
17 19 25 29 29 25 20 11 14 18 23 28 32 36 39 42 45 49 52 54 55 57 59 60 60 57 55 56 58 54 53 56
23 24 24 26 25 20 14 15 19 24 29 32 35 38 42 46 50 53 55 56 58 60 60 59 57 55 55 58 55 53 55 58
21 21 19 18 17 17 19 21 24 28 33 37 41 44 48 51 54 55 56 57 60 60 58 57 55 55 58 56 55 56 59 61
18 15 9 10 14 19 23 26 29 32 36 40 44 47 51 53 55 57 58 59 60 58 57 56 56 58 57 55 58 62 64 64
9 9 12 16 20 25 28 31 33 36 40 44 48 50 52 54 57 58 59 59 57 59 57 58 60 60 58 60 65 68 69 69
15 18 20 22 26 30 34 38 39 41 43 47 50 52 53 55 56 56 58 60 55 58 60 63 61 62 64 68 72 76 80 77
20 23 26 28 29 32 38 43 45 46 47 49 51 53 54 55 57 57 59 58 58 59 59 60 63 68 70 73 77 88 90 89
26 30 32 33 35 36 40 47 50 51 49 49 51 53 55 57 56 57 56 57 60 60 59 62 66 67 71 73 83 87 93 93
33 36 38 41 42 44 45 45 50 51 53 52 53 55 55 55 53 54 57 59 58 61 63 65 68 73 74 78 79 84 83 82
40 43 45 47 45 47 43 48 53 54 55 55 52 54 54 52 54 57 60 56 60 64 67 71 77 80 79 83 84 79 77 83
47 48 48 48 52 51 51 50 53 55 53 52 53 54 54 56 59 60 60 61 66 67 70 77 81 82 84 79 74 78 83 80
46 49 51 50 49 46 50 49 52 51 50 50 54 56 58 58 56 58 62 66 71 78 86 89 91 89 78 76 72 81 71 63
46 47 49 51 53 47 48 48 47 47 50 54 56 56 56 55 58 61 66 72 71 80 85 87 84 83 78 72 73 67 60 53
49 51 51 49 46 46 46 47 48 51 53 54 54 55 56 61 61 66 63 71 77 78 80 84 77 70 74 73 67 60 52 50

GFSFLT1_500_spd_018.txt.gz
Wind_Speed
5 3 3 4 4 7 10 13 12 13 14 13 11 8 6 8 12 16 20 23 27 31 34 37 40 41 44 46 47 47 48 48
3 3 6 9 10 13 13 11 11 11 10 7 6 7 10 14 19 23 27 30 33 36 39 42 44 47 48 50 50 50 49 49
4 4 7 12 12 13 13 12 11 5 6 8 11 13 17 22 25 29 32 34 38 42 45 48 49 50 52 53 53 51 50 49
1 2 6 10 12 13 14 13 12 4 7 11 15 18 23 27 31 34 37 40 44 47 50 51 54 54 56 57 54 52 51 51
5 4 6 12 15 12 12 13 13 9 11 15 19 24 28 31 35 39 42 45 47 49 53 55 56 57 57 54 53 53 53 55
6 7 11 13 13 10 10 10 12 13 18 22 25 29 33 36 39 42 46 48 51 53 56 57 56 56 54 53 53 54 55 53
13 13 13 12 10 6 7 6 12 16 21 27 32 36 39 42 46 48 51 54 56 57 57 57 57 55 55 56 56 58 56 55
12 12 12 8 9 10 11 13 18 22 27 32 36 40 43 48 51 53 55 57 58 59 57 58 59 55 58 59 60 59 59 62
11 7 4 6 10 16 19 22 24 28 33 36 39 42 47 51 53 54 56 58 58 58 59 61 58 57 60 62 61 61 63 65
5 2 7 11 15 18 22 27 29 33 37 40 43 46 51 52 53 54 56 56 57 61 59 60 59 62 62 60 63 66 67 68
9 9 12 16 19 24 27 30 34 38 41 43 43 49 50 51 53 55 56 58 58 59 58 59 61 63 62 65 68 70 73 74
14 15 17 21 25 29 33 37 41 42 42 42 44 45 48 52 55 56 52 59 57 56 59 62 62 62 66 67 70 74 83 85
18 19 23 27 29 33 37 39 39 43 42 44 45 45 49 54 57 55 52 52 56 59 61 61 61 65 70 72 74 81 85 84
22 28 31 32 34 35 33 36 38 39 42 44 47 47 51 57 53 49 51 55 59 62 62 63 65 70 74 76 82 85 82 84
31 34 33 36 39 42 43 45 42 38 42 48 47 52 54 52 51 54 56 58 60 62 65 68 71 71 73 79 84 82 84 78
33 35 37 41 45 47 47 43 42 42 46 47 49 51 52 54 55 56 56 60 62 65 69 73 77 75 76 81 81 78 79 75
38 42 46 49 49 49 44 43 41 45 46 48 51 52 54 55 55 56 58 61 66 68 72 75 81 77 77 78 76 74 76 75
42 43 43 46 48 48 46 44 47 49 50 50 51 52 53 53 56 58 63 65 67 69 71 78 79 85 84 75 72 73 67 61
44 46 47 49 47 46 47 48 48 48 48 49 50 50 53 56 59 64 68 61 71 74 76 78 83 79 72 73 69 61 53 52

GFSFLT1_500_spd_021.txt.gz
Wind_Speed
9 11 10 8 8 5 4 3 2 4 4 3 2 1 3 4 7 12 16 21 24 28 31 35 37 39 42 44 46 46 47 47
5 8 9 8 7 7 5 3 2 4 1 1 2 2 5 8 13 18 22 25 28 32 35 39 42 44 46 47 48 49 48 46
4 5 5 5 6 6 4 2 2 2 3 4 4 6 10 14 20 23 27 31 34 37 40 43 45 48 49 51 51 50 48 46
2 1 1 3 4 4 4 3 3 4 6 7 9 11 17 22 26 30 33 37 40 43 46 48 49 50 51 50 48 51 49 49
5 3 2 7 7 7 6 5 7 7 9 10 15 20 23 28 33 36 38 40 44 47 50 51 51 51 50 51 52 53 52 54
8 6 9 11 9 8 9 7 7 9 11 14 21 23 28 33 38 39 41 44 48 51 53 53 53 51 53 51 55 56 56 58
12 12 10 12 10 9 7 8 10 13 16 20 25 29 34 38 41 42 44 49 53 52 51 51 48 50 58 57 57 57 60 62
10 11 13 10 7 8 10 13 15 16 19 24 29 33 37 39 44 45 47 54 54 51 49 52 51 54 61 60 59 62 64 65
10 10 11 11 9 10 15 16 18 22 26 31 35 38 42 43 46 48 52 56 53 53 50 51 54 62 62 61 64 65 65 66
4 5 6 9 10 14 18 19 22 27 32 36 40 42 40 43 48 53 55 54 53 54 57 53 56 60 63 65 66 66 69 72
7 7 10 12 13 16 21 25 30 34 37 41 40 40 42 48 50 52 51 51 53 56 57 57 59 63 64 65 66 70 73 77
12 14 15 16 18 21 25 29 35 38 39 40 42 43 43 45 51 53 52 54 58 58 57 60 63 63 66 68 71 73 75 78
17 18 19 20 24 27 31 35 36 39 39 41 41 42 46 51 52 53 53 59 57 58 60 62 61 64 69 73 76 78 80 81
21 22 22 27 30 32 32 34 34 35 39 38 41 44 51 52 52 53 58 56 58 58 59 61 65 67 72 76 76 78 83 83
22 23 28 30 31 33 35 37 39 39 43 43 45 51 52 48 52 57 56 56 57 58 61 65 69 73 76 77 80 81 84 86
25 28 29 30 33 35 36 38 40 43 45 46 50 51 51 51 53 56 56 56 57 60 64 70 73 73 76 81 80 86 88 85
30 30 32 35 37 40 43 46 46 46 46 47 50 51 52 54 56 56 55 57 57 62 66 73 71 78 79 80 85 87 79 79
32 34 36 38 41 45 47 47 46 46 49 52 52 53 55 54 52 53 55 63 63 69 68 70 76 82 80 82 83 83 77 65
35 37 39 42 45 47 47 47 47 50 52 53 54 51 51 53 54 56 60 57 59 75 67 72 76 77 78 80 77 75 61 58

GFSFLT1_500_spd_024.txt.gz
Wind_Speed
10 9 9 8 6 5 4 4 2 1 2 5 7 7 7 7 6 8 11 15 19 23 27 31 34 39 42 43 45 47 47 48
7 8 8 8 8 8 6 5 4 4 4 5 7 7 7 7 10 12 16 19 23 27 31 34 38 42 44 45 47 48 46 47
10 9 8 8 7 8 8 10 8 7 8 9 8 9 10 12 15 18 20 24 28 31 34 37 41 43 44 45 46 45 46 47
9 10 9 7 5 5 8 10 11 11 12 13 12 13 15 17 21 23 25 29 33 36 37 41 42 42 42 43 44 42 46 53
8 7 9 10 7 8 10 11 13 13 15 17 16 17 18 22 25 28 33 36 38 41 44 46 45 43 40 46 48 48 52 56
10 9 10 10 13 12 13 14 14 14 13 14 17 19 20 26 30 34 38 40 42 44 46 48 48 45 46 46 45 53 59 61
19 19 17 16 17 17 15 14 12 11 13 14 16 21 25 29 33 37 41 43 43 45 46 49 48 49 46 55 55 58 60 60
22 23 22 20 17 15 14 15 13 14 22 16 19 24 29 33 37 37 40 41 44 50 50 50 52 55 58 58 58 58 60 63
15 19 22 19 19 16 14 14 17 18 23 21 25 28 33 36 37 38 39 45 47 51 49 54 53 58 61 60 60 62 63 66
12 12 15 15 15 13 15 17 18 21 24 26 29 34 35 37 37 39 48 52 55 50 56 57 57 63 61 63 64 64 67 70
12 11 11 10 11 14 17 21 23 27 30 31 32 36 37 38 39 43 48 53 57 58 62 61 63 63 64 65 64 67 70 73
16 16 14 15 16 17 22 26 27 29 31 32 34 36 37 38 42 44 52 56 59 64 63 64 66 65 65 64 66 70 74 76
20 19 19 21 21 24 28 31 31 31 32 35 36 36 39 40 43 49 55 61 65 66 66 66 64 62 62 64 67 71 77 77
22 19 21 23 27 29 32 33 31 32 35 36 39 40 41 43 50 52 59 61 62 63 63 62 60 61 68 67 70 74 77 80
20 22 24 27 30 33 34 33 34 35 37 39 38 40 45 48 50 55 58 60 61 60 60 59 59 66 68 73 75 77 82 84
24 25 27 30 33 34 33 33 36 37 37 39 39 43 44 49 53 56 59 58 56 57 60 63 59 56 63 73 77 80 78 79
27 29 31 32 33 32 33 37 39 42 45 45 43 46 49 52 56 59 56 56 57 57 64 65 68 74 74 77 81 78 77 79
30 32 33 33 32 34 37 40 43 46 47 46 46 48 51 55 58 53 55 58 58 59 61 54 73 78 76 75 77 76 77 79
30 31 31 32 35 38 41 44 47 48 48 49 50 52 55 56 55 54 54 55 55 59 68 68 71 72 74 75 76 77 77 77

GFSFLT1_500_spd_027.txt.gz
Wind_Speed
13 14 12 12 12 10 9 10 10 10 10 11 12 12 15 15 13 12 11 12 14 16 21 24 27 29 33 38 42 44 44 44
11 12 12 11 11 12 12 12 11 10 10 11 13 12 13 13 10 10 13 16 18 21 25 28 30 34 38 42 46 46 45 41
10 11 12 11 10 11 12 14 12 10 10 14 14 14 13 12 14 15 17 21 23 27 30 31 34 37 41 43 45 46 45 46
12 12 10 8 6 5 7 9 10 10 10 11 15 15 15 14 16 18 21 25 29 31 32 35 38 42 42 46 49 49 48 52
10 11 12 10 8 6 8 11 14 14 16 16 17 16 16 18 19 23 26 30 31 33 36 37 41 44 47 49 49 50 50 56
14 14 14 13 15 13 11 11 16 17 17 18 19 20 21 23 22 26 29 32 35 38 39 41 44 47 52 48 51 56 59 63
20 21 21 19 19 17 17 16 17 17 16 18 20 24 24 24 25 27 30 32 35 38 39 42 49 52 53 52 56 55 60 65
22 25 25 25 23 21 21 20 18 18 17 22 25 29 24 25 25 30 31 35 34 37 38 46 50 52 56 58 63 62 65 66
17 24 29 30 29 28 25 21 19 19 20 22 22 24 28 28 29 30 33 35 36 36 44 52 56 57 52 56 66 65 67 65
17 24 27 26 27 28 25 22 18 20 20 22 25 28 30 29 30 33 36 37 38 44 48 52 56 44 63 66 66 67 66 64
16 16 18 17 16 18 20 19 21 22 24 27 27 30 30 30 33 34 37 38 41 47 50 56 59 62 66 68 67 68 66 65
20 18 17 17 18 19 21 21 23 25 29 31 30 31 33 34 36 40 38 38 45 53 56 58 63 65 64 64 64 64 68 69
22 20 20 23 21 24 25 26 27 29 30 32 34 34 37 40 42 40 42 43 49 57 57 61 63 64 59 61 65 67 68 71
26 30 27 25 24 26 26 28 30 32 35 36 36 38 40 41 42 44 46 50 53 58 58 59 61 60 61 61 63 66 68 70
23 23 23 25 26 27 28 31 34 36 37 37 37 39 39 40 41 41 47 51 54 55 58 60 56 59 60 61 63 68 75 80
22 23 25 26 28 30 31 33 35 36 36 37 37 38 39 40 42 46 49 53 56 58 58 55 56 53 61 65 68 72 75 79
25 26 27 28 29 30 32 34 33 33 34 36 39 42 44 46 48 50 53 55 57 57 54 56 53 61 66 66 72 77 79 79
26 28 29 30 30 31 31 31 32 34 36 39 42 45 47 50 51 53 55 55 54 54 51 49 58 59 65 70 75 77 77 77
28 29 30 30 31 30 30 32 34 37 40 42 45 47 50 51 52 53 54 53 50 50 55 53 61 65 69 72 75 76 78 79

GFSFLT1_500_spd_030.txt.gz
Wind_Speed
10 8 8 10 10 11 10 9 9 8 7 7 9 12 13 17 18 14 12 15 15 14 15 18 22 27 31 33 36 39 41 45
11 10 7 7 5 5 7 9 9 9 10 12 16 16 17 16 19 15 15 15 14 16 21 23 27 31 33 36 37 40 44 47
11 13 13 12 12 12 12 11 10 8 8 11 13 16 17 17 15 16 15 15 17 23 27 30 32 32 34 34 39 42 47 45
11 12 12 11 9 8 8 8 10 11 10 11 13 16 17 16 18 18 17 19 22 26 29 33 33 34 36 36 40 43 47 48
9 11 11 11 10 10 10 9 11 13 13 14 15 19 21 22 22 20 21 23 25 28 31 32 34 36 40 39 44 48 52 52
13 14 15 16 15 14 13 11 13 14 16 16 18 19 21 21 25 23 24 26 28 31 33 33 34 38 41 46 48 55 60 53
17 19 20 18 20 19 19 18 17 17 17 16 17 18 21 23 26 26 28 28 30 31 33 36 37 42 43 49 56 56 54 49
19 21 22 24 25 24 24 22 21 23 22 19 19 22 25 28 31 30 33 33 31 33 34 40 36 40 44 51 58 49 53 55
20 19 22 26 29 29 29 28 28 26 24 21 22 25 24 29 32 34 37 35 33 34 38 38 42 46 48 50 56 44 51 72
21 22 23 27 30 30 29 31 29 28 24 23 24 26 28 33 36 32 31 31 32 36 38 39 43 49 45 49 42 61 69 70
22 21 22 26 30 31 30 28 29 34 21 25 26 30 35 39 35 31 32 33 36 41 41 46 45 39 46 48 65 69 69 64
25 26 24 22 21 23 23 22 22 22 22 27 30 35 38 37 34 34 38 39 40 43 42 39 42 52 60 67 66 67 63 63
25 26 24 26 26 25 24 24 24 26 28 32 36 36 40 41 40 39 40 41 43 45 48 51 54 59 59 61 63 61 57 58
26 25 26 28 27 28 28 26 26 29 33 35 37 41 41 40 41 42 43 44 45 47 48 52 54 55 58 62 60 57 60 63
24 26 27 28 29 30 30 29 29 31 34 37 39 39 40 41 42 42 43 43 45 48 51 54 54 56 58 60 60 60 62 67
23 24 25 24 27 29 30 30 32 33 35 36 38 39 39 40 40 41 45 47 49 52 55 56 57 53 59 53 60 64 67 70
22 25 25 26 27 28 29 31 33 34 35 35 35 37 38 39 42 45 48 50 53 55 58 57 57 56 53 52 64 66 67 71
24 27 28 28 28 30 31 32 33 34 34 35 36 38 40 43 46 48 50 53 55 56 57 58 58 55 57 61 65 67 70 73
27 27 29 32 32 31 31 32 33 33 34 36 38 41 43 46 48 50 52 54 56 57 59 59 59 59 61 64 67 69 72 76

GFSFLT1_500_spd_033.txt.gz
Wind_Speed
7 10 11 13 11 9 8 7 7 5 3 3 4 4 5 8 10 12 9 9 13 16 15 17 17 20 23 26 30 33 32 32
5 5 7 6 6 6 5 4 4 5 6 7 8 10 11 13 15 15 12 13 15 16 17 18 22 25 28 31 36 35 30 33
5 6 5 5 5 5 5 4 3 5 6 7 9 11 13 15 15 14 17 18 17 17 18 23 26 31 35 37 39 38 36 36
7 8 9 8 7 6 5 5 5 6 8 9 9 11 12 14 16 17 18 18 19 20 22 27 28 33 37 38 37 37 39 39
6 7 7 8 9 8 8 8 9 9 9 11 11 12 14 17 18 20 20 23 25 25 27 30 31 34 34 34 37 39 43 46
9 10 11 11 12 13 13 13 13 13 13 14 15 15 17 18 22 24 25 28 29 32 32 32 33 36 38 38 39 41 43 44
13 16 16 16 18 18 18 18 19 18 18 17 18 18 17 16 18 22 28 32 35 38 36 33 36 41 41 47 38 42 49 45
17 17 16 16 17 21 22 23 22 22 22 24 22 20 19 19 23 23 29 29 32 35 39 38 41 35 40 40 44 48 45 55
19 18 20 20 20 22 23 24 26 27 21 29 27 23 22 24 27 29 33 36 40 35 37 33 34 38 41 44 49 49 48 51
24 21 20 21 23 24 25 27 26 26 27 33 30 23 26 27 30 35 36 39 40 34 33 35 38 42 43 43 46 50 52 51
26 23 24 23 24 26 26 28 28 28 27 27 24 26 27 31 35 37 40 38 34 35 35 39 41 42 42 37 46 49 59 67
23 28 30 26 26 26 26 25 26 25 24 24 22 24 30 35 37 40 41 42 40 39 40 43 45 46 46 50 56 60 64 68
27 26 28 30 30 31 29 27 27 27 27 28 28 31 34 38 38 42 44 43 42 42 44 45 47 49 50 52 56 57 64 66
23 25 27 29 30 30 31 30 30 31 31 32 34 35 38 39 41 43 43 44 44 45 46 47 48 47 51 55 56 57 59 67
23 25 27 29 32 33 34 35 36 37 36 36 36 37 39 40 42 43 43 44 45 45 47 50 52 52 55 55 58 58 56 67
23 24 25 27 25 30 34 34 34 34 34 35 37 38 40 42 42 42 43 43 45 47 50 53 54 56 57 59 60 62 60 65
24 24 26 27 28 28 30 30 30 30 34 35 37 38 39 39 41 42 44 45 48 51 54 55 57 58 59 61 62 65 65 66
28 28 27 29 31 30 31 31 32 34 35 36 37 37 38 39 41 44 46 49 52 54 57 58 59 61 62 63 64 65 65 65
33 33 32 32 33 33 36 35 35 35 35 36 36 37 39 42 44 47 50 53 55 57 58 60 61 62 62 63 64 64 66 67

GFSFLT1_500_spd_036.txt.gz
Wind_Speed
11 11 13 12 11 9 10 7 6 8 7 9 9 7 9 10 11 9 7 7 7 10 13 14 12 14 16 20 23 26 28 33
5 6 7 8 5 4 3 3 2 2 5 5 5 4 2 1 1 4 9 11 10 10 12 13 16 19 21 25 28 32 35 36
1 2 0 1 0 1 2 3 4 2 2 4 5 4 5 6 6 11 13 10 13 12 15 19 20 21 24 28 31 35 38 38
1 1 2 2 2 1 1 2 4 5 5 5 5 5 6 7 7 10 13 15 15 18 21 21 23 27 29 31 34 35 34 36
3 2 2 3 3 4 5 7 7 8 10 10 9 8 9 10 10 12 13 15 17 20 25 26 30 32 37 35 36 36 36 41
5 4 6 8 8 9 9 10 11 11 12 13 12 12 12 13 14 16 16 19 21 25 26 30 38 40 39 42 42 32 38 42
8 8 11 8 10 13 13 14 15 14 14 14 14 15 13 12 13 15 16 18 24 27 25 32 34 39 38 44 42 35 41 44
11 12 10 11 12 13 12 13 14 15 15 16 21 15 18 16 16 16 18 22 24 28 32 35 40 39 35 33 33 38 40 43
18 18 18 16 17 14 13 14 16 17 17 18 17 19 27 24 19 20 27 20 26 31 35 35 31 29 30 34 38 41 44 47
26 23 26 25 22 19 16 17 19 20 20 21 21 22 24 40 30 21 27 26 29 33 32 35 36 36 37 40 41 43 44 47
25 26 27 26 24 25 21 20 23 23 24 23 24 20 21 28 14 23 27 31 34 34 37 38 38 39 41 43 44 46 49 50
19 23 22 24 29 27 29 38 21 28 27 29 27 26 29 30 28 29 33 34 35 38 39 39 40 42 43 45 48 50 51 55
19 21 26 28 27 30 33 33 28 30 30 33 31 28 28 33 30 33 36 36 39 42 41 43 43 44 46 48 50 53 56 54
24 19 23 26 28 31 33 34 33 33 33 34 32 30 35 32 36 37 38 39 43 44 44 44 46 48 50 52 54 56 56 56
25 23 21 26 27 30 33 34 35 36 36 38 38 36 37 36 38 39 40 43 45 45 45 46 48 51 52 55 56 57 59 61
26 30 24 25 27 29 30 31 34 36 36 37 35 35 35 36 38 41 43 44 44 44 46 48 51 53 55 58 60 62 62 63
28 30 29 28 28 27 24 26 31 33 35 34 34 36 39 39 39 40 40 40 43 46 49 51 53 56 58 60 61 62 62 62
30 32 32 31 30 29 29 30 31 32 31 32 35 35 36 37 38 39 40 42 45 48 51 53 55 56 58 61 62 63 63 62
30 33 36 34 33 34 34 33 34 33 36 36 36 37 37 38 38 41 43 46 48 51 54 55 56 59 61 62 61 61 60 60

GFSFLT1_500_spd_039.txt.gz
Wind_Speed
12 14 17 19 16 15 14 15 14 13 14 12 14 16 14 10 14 13 14 15 13 10 13 16 16 16 18 18 19 18 22 24
9 8 10 10 11 9 8 8 8 7 11 10 9 12 9 9 11 11 12 12 11 12 14 17 18 20 20 19 21 23 26 26
3 3 4 4 6 6 6 7 8 9 5 6 7 8 5 2 3 3 6 7 7 8 12 18 20 20 20 23 26 28 30 30
4 3 3 5 5 6 8 10 10 9 8 7 6 3 2 1 4 4 7 6 8 10 12 16 19 20 24 26 30 33 37 37
3 2 2 3 3 3 4 5 5 3 3 4 4 4 3 4 6 6 7 7 8 11 14 15 19 24 30 34 37 39 40 42
5 3 2 3 1 2 3 1 2 2 3 3 3 4 5 7 10 11 11 10 12 14 16 19 20 22 29 31 34 41 35 38
2 2 2 3 4 5 6 6 6 7 7 7 7 9 8 9 10 13 16 14 12 14 13 15 17 23 27 29 28 28 28 32
5 3 4 5 9 10 10 10 11 8 9 10 11 13 12 12 14 14 17 22 17 21 18 18 20 20 25 26 26 28 33 37
12 8 10 12 13 14 14 14 13 13 11 12 15 16 16 17 17 19 23 30 25 23 17 21 24 24 27 31 32 34 37 40
18 13 12 12 18 20 17 19 20 19 16 12 14 20 22 17 19 17 22 29 27 24 20 21 26 28 32 34 36 38 39 42
19 21 17 14 15 17 16 21 20 26 22 19 18 18 21 22 22 18 20 21 25 24 25 25 29 33 36 38 39 40 42 45
20 20 24 25 23 20 20 27 33 26 17 26 27 26 27 26 25 38 30 22 24 28 26 31 35 36 39 40 41 43 46 49
18 21 19 22 26 26 27 29 26 23 27 28 26 31 39 36 22 26 30 27 25 31 30 35 38 40 41 42 44 47 50 52
24 22 22 21 23 26 28 27 27 29 30 25 20 26 25 27 33 30 32 37 36 33 36 39 41 41 43 45 47 50 52 53
24 15 18 19 22 25 28 26 27 29 28 29 32 36 36 35 34 33 35 37 35 36 39 41 41 42 44 46 49 52 54 56
25 21 22 22 23 23 26 28 30 31 32 32 34 33 35 36 35 37 38 36 38 41 41 40 41 44 47 49 53 54 55 57
36 30 31 25 23 24 25 28 30 31 31 31 31 33 35 36 36 37 37 38 40 40 39 41 43 46 50 53 55 56 58 60
33 35 35 29 26 26 29 30 30 30 31 33 33 33 32 34 37 38 38 38 38 38 40 42 46 49 53 56 56 58 60 60
20 30 32 30 30 30 32 34 33 33 33 33 34 34 34 35 35 35 36 35 36 38 42 46 50 53 56 57 58 59 59 59

GFSFLT1_500_spd_042.txt.gz
Wind_Speed
9 8 13 16 17 18 19 19 16 14 13 9 10 12 11 9 10 14 17 19 19 17 16 17 18 19 19 21 21 21 21 21
6 5 8 10 11 13 13 13 12 12 13 13 11 9 8 9 9 8 11 16 15 15 17 21 21 20 21 20 20 21 23 24
3 4 5 6 7 8 10 11 10 9 11 11 11 8 7 10 11 10 13 12 16 19 20 17 18 19 19 18 21 26 27 27
2 3 7 9 10 11 10 11 13 12 11 12 11 8 7 8 6 8 7 13 17 16 16 17 19 20 20 23 26 28 28 31
4 2 5 9 9 10 9 9 10 9 9 8 8 8 7 6 3 3 6 8 13 14 16 19 20 19 20 23 24 26 30 31
2 4 3 1 2 4 5 5 4 4 4 4 5 6 4 3 3 5 8 10 12 17 19 22 21 18 19 20 23 22 25 26
4 2 3 1 1 3 2 2 2 3 4 4 3 4 5 8 9 8 10 10 12 16 19 21 19 21 20 19 26 31 26 25
5 5 5 4 4 5 6 8 8 9 9 8 8 9 10 13 11 11 12 13 14 21 24 25 19 21 19 20 24 24 27 31
11 9 11 12 11 6 8 11 14 13 13 13 12 13 14 16 17 18 16 20 25 26 27 31 29 24 21 20 24 25 30 34
7 10 12 14 10 12 14 15 18 18 16 19 20 21 16 18 20 20 22 23 16 25 22 30 28 22 24 21 24 28 33 36
12 12 11 10 11 13 17 17 18 17 19 20 25 25 24 22 23 26 27 29 24 26 19 24 27 21 25 23 28 33 35 36
14 15 14 13 14 14 15 19 21 24 23 26 26 31 32 35 34 36 36 35 33 37 28 22 22 24 26 29 33 34 36 38
20 19 21 19 18 17 16 17 20 24 27 31 30 32 34 36 38 44 29 47 40 31 22 23 28 29 29 33 35 37 39 40
22 26 28 23 24 23 20 20 19 21 26 30 28 33 35 28 27 26 24 23 20 30 24 27 29 31 33 35 36 38 39 42
22 18 25 21 23 22 21 20 20 22 23 26 28 29 27 26 30 28 25 31 29 30 31 32 33 34 36 36 37 39 43 47
28 16 18 21 21 23 26 28 27 27 25 28 28 27 28 29 29 28 30 32 34 35 35 35 37 38 37 37 39 43 48 52
24 20 31 29 29 30 24 28 30 32 31 31 29 28 28 29 28 30 31 34 37 38 39 39 37 36 37 40 44 49 53 56
33 35 30 27 20 22 24 27 29 30 32 31 31 30 31 30 30 32 34 36 35 36 36 36 35 38 41 46 51 55 58 60
34 35 26 21 24 25 28 31 32 33 33 34 34 33 34 35 35 37 37 36 34 36 36 36 39 43 47 52 56 60 61 62

GFSFLT1_500_spd_045.txt.gz
Wind_Speed
9 6 4 7 10 9 12 19 22 23 26 23 23 24 20 21 23 25 29 23 24 24 21 16 20 22 21 21 23 25 24 21
3 4 2 4 9 13 12 13 13 19 19 18 17 16 14 10 11 15 12 15 19 20 18 18 19 20 22 24 26 23 23 24
4 3 4 3 4 7 10 8 10 12 13 15 15 15 15 14 12 11 14 16 18 18 18 19 19 21 23 24 26 28 25 25
6 5 4 4 5 5 7 8 8 11 13 12 11 8 10 11 11 9 14 14 17 19 18 15 19 23 24 28 29 26 28 29
7 7 7 6 6 5 7 8 6 7 8 11 13 14 14 12 12 13 15 16 16 19 19 20 25 24 29 30 27 26 29 30
5 8 8 9 7 7 6 5 6 6 5 6 9 10 12 12 10 10 10 12 11 16 18 21 25 26 29 26 27 28 31 30
5 7 6 5 6 5 5 6 7 8 7 8 10 11 11 12 11 11 9 10 9 14 17 22 24 28 28 28 26 29 30 35
11 9 8 7 7 7 6 7 9 10 8 7 8 8 9 9 13 13 9 10 15 17 20 21 27 32 31 33 33 34 27 31
9 12 12 8 8 10 10 9 9 9 9 11 12 13 13 12 13 17 17 15 17 21 22 24 30 30 33 34 34 35 29 32
10 11 14 14 12 11 15 12 11 10 13 17 18 18 18 18 18 19 21 21 23 26 28 26 27 38 33 36 36 29 28 31
19 15 13 13 14 14 14 14 10 13 15 15 18 23 21 25 28 25 23 25 27 31 33 34 34 36 35 35 32 27 29 30
15 19 13 12 14 16 16 18 17 16 18 21 26 31 30 31 29 37 29 34 37 39 42 39 40 32 32 28 27 29 29 32
17 20 20 16 15 17 18 18 19 20 23 26 30 32 34 35 40 38 39 37 37 35 34 43 36 29 31 27 27 31 32 33
17 20 22 21 23 22 23 23 24 25 25 25 25 26 30 31 22 20 24 26 25 24 24 28 28 20 23 28 30 33 34 35
30 28 20 25 21 20 20 21 24 26 25 24 26 27 26 29 27 23 22 23 25 26 28 24 26 27 28 28 32 35 36 36
25 25 26 29 30 20 18 19 23 26 29 28 29 29 30 30 27 26 24 26 28 27 29 29 30 33 32 35 38 38 37 38
26 26 28 23 24 28 29 30 27 31 31 30 32 32 32 32 29 28 27 29 29 30 32 33 36 35 36 39 39 38 39 41
33 31 31 27 28 34 33 25 25 25 28 30 33 33 33 32 32 32 31 34 34 33 33 36 39 40 39 39 39 41 44 47
36 32 32 33 31 30 31 33 29 27 30 34 36 35 36 36 37 38 37 36 36 38 39 40 40 40 41 42 43 46 49 53

GFSFLT1_500_spd_048.txt.gz
Wind_Speed
4 5 8 10 8 14 24 23 21 14 18 19 18 22 27 23 26 27 26 28 28 29 29 28 27 26 23 25 27 30 29 28
5 3 3 4 6 6 8 17 24 28 26 25 25 24 24 23 26 25 29 30 30 26 26 23 22 22 23 23 23 27 29 28
7 7 5 2 1 2 4 6 5 13 22 30 30 28 29 30 26 30 32 30 29 25 21 21 21 21 23 23 26 29 30 32
7 8 7 6 4 3 4 5 6 9 13 11 12 17 20 19 16 15 16 19 21 22 23 24 23 23 23 26 28 29 31 31
6 6 6 5 3 4 6 6 7 8 11 12 14 15 16 16 13 12 13 14 17 18 18 20 22 25 26 27 29 28 29 31
6 7 6 7 5 5 5 6 7 6 6 8 10 12 12 10 9 10 11 15 16 18 20 23 22 23 25 25 28 30 33 34
9 7 8 9 9 8 7 5 5 4 4 6 7 8 10 11 13 13 14 14 15 18 19 21 26 24 27 28 31 32 32 35
12 12 11 11 12 9 8 7 7 6 7 6 5 7 9 9 11 13 14 15 18 19 21 23 25 25 27 29 33 34 35 36
15 16 14 14 12 9 10 12 10 11 11 11 12 11 12 11 14 13 15 18 21 22 22 24 25 25 25 27 32 36 42 43
17 15 14 18 17 17 16 17 13 12 15 16 16 16 16 16 18 19 21 23 25 27 27 27 30 32 33 30 33 39 48 47
20 23 20 18 19 20 19 16 14 14 14 15 15 16 18 22 23 24 23 30 31 31 30 30 33 32 35 39 40 42 34 39
17 18 20 21 22 20 17 18 19 19 17 19 21 24 25 25 30 34 36 33 30 33 38 37 35 36 36 45 49 47 36 33
23 20 20 22 21 18 16 19 20 20 22 22 24 30 30 28 28 29 27 29 35 39 28 27 29 33 29 38 48 38 40 37
27 23 17 20 21 24 23 27 25 28 28 29 28 27 28 30 32 29 28 21 18 21 19 20 26 20 26 15 21 26 34 33
23 27 25 22 21 29 27 25 29 28 27 28 27 28 29 29 29 29 28 28 22 24 25 29 28 28 27 21 24 28 34 36
22 24 27 29 26 28 25 26 32 29 25 28 34 33 31 28 29 29 29 29 29 29 29 28 28 28 28 31 33 32 37 38
31 30 28 25 25 25 28 28 32 31 33 38 43 42 38 30 30 30 31 30 31 33 31 31 30 32 32 35 36 37 40 44
30 30 26 24 24 24 27 30 33 36 36 35 34 36 35 33 32 34 34 34 35 35 34 34 34 35 36 38 40 44 46 48
31 33 34 29 25 21 29 33 35 32 31 32 33 33 35 35 37 36 35 35 36 36 38 40 40 41 41 42 45 48 48 48

GFSFLT1_500_spd_051.txt.gz
Wind_Speed
8 7 7 11 13 6 17 20 12 9 9 13 17 14 17 29 29 28 27 27 27 28 28 28 29 28 31 30 30 30 32 32
10 7 7 5 7 8 9 18 16 20 11 11 10 13 15 20 27 26 25 23 24 27 29 29 28 30 29 28 28 31 33 31
9 10 8 6 3 4 1 4 16 21 17 20 18 16 18 19 27 23 26 27 27 28 30 28 27 28 27 27 27 29 33 31
9 10 8 7 4 1 4 2 1 9 18 23 23 23 24 24 28 26 27 32 28 30 32 26 26 24 24 25 26 29 29 29
9 8 6 5 3 1 2 2 2 2 6 8 9 9 11 20 23 20 21 24 24 25 21 20 23 20 21 24 27 29 27 28
10 8 5 3 3 3 2 2 3 4 6 7 8 9 11 14 14 13 15 14 14 15 17 19 19 19 22 25 28 29 29 31
10 10 8 6 7 7 8 7 6 7 8 10 9 9 11 13 16 17 17 16 17 19 21 21 21 23 25 28 31 31 28 32
9 11 13 10 9 8 8 8 8 7 8 9 9 10 11 11 11 13 13 15 17 20 20 22 25 28 31 31 32 31 31 33
10 10 15 16 13 10 10 10 11 12 13 12 12 12 12 12 10 11 13 14 16 19 20 23 25 28 29 30 28 27 28 32
17 12 15 13 15 15 15 14 14 15 14 15 17 17 16 16 13 14 16 18 20 22 24 25 26 29 29 30 31 33 34 36
18 17 17 17 18 20 21 20 17 16 14 14 14 16 17 17 18 19 20 21 24 26 29 31 32 31 32 35 38 39 39 44
20 20 22 17 16 18 20 21 18 18 19 19 20 20 20 21 22 24 25 28 32 33 36 36 37 37 37 38 41 45 46 49
20 25 23 18 16 20 25 22 20 19 19 20 22 23 26 25 26 28 28 26 26 27 26 32 39 46 36 41 38 33 39 41
23 26 25 25 24 22 24 24 25 26 25 25 28 28 30 30 29 31 31 29 29 30 27 24 22 28 28 31 30 24 27 31
30 29 29 29 25 22 25 30 29 26 24 25 28 27 26 27 29 31 34 33 32 31 29 28 26 24 29 33 30 30 30 31
27 31 31 30 31 29 28 31 34 34 31 26 27 26 26 29 32 34 36 36 34 32 32 31 31 30 31 33 35 34 33 35
30 28 32 36 35 35 36 37 37 36 32 27 31 34 34 36 35 37 34 34 35 35 34 33 35 35 35 36 37 37 37 39
33 30 29 31 35 40 35 33 35 37 37 32 33 35 39 37 34 35 33 33 35 35 37 39 37 41 41 39 38 41 40 43
34 32 31 29 28 33 34 32 34 36 38 37 36 39 36 34 35 36 35 33 33 34 36 36 38 40 42 43 41 43 44 47

GFSFLT1_500_spd_054.txt.gz
Wind_Speed
12 13 13 14 14 11 9 12 10 6 6 8 16 24 27 27 29 31 25 26 30 30 33 34 26 26 27 28 24 27 30 31
13 12 13 12 13 10 8 10 23 10 10 9 10 13 20 29 25 31 24 19 19 23 29 29 29 29 28 27 28 30 31 31
13 11 10 11 11 10 7 7 7 9 10 17 10 7 9 11 19 23 22 20 19 20 20 26 28 29 28 30 30 29 30 29
13 10 10 8 7 10 5 6 8 7 17 16 17 14 14 10 15 19 21 18 19 24 24 25 26 27 29 29 30 30 28 27
11 8 9 6 5 5 5 3 4 4 2 8 15 15 14 16 17 19 21 20 21 25 28 27 26 28 27 25 26 26 24 24
12 7 9 7 5 3 5 5 2 3 2 4 5 6 8 8 18 24 21 24 22 24 26 26 20 19 19 18 19 21 21 21
16 11 8 8 7 4 6 8 7 4 3 6 5 5 8 10 11 14 16 17 16 18 19 18 18 20 20 19 23 24 26 26
15 15 9 9 10 8 7 5 5 6 7 6 8 9 10 10 10 11 13 13 16 16 16 18 20 22 24 28 27 31 29 29
14 18 13 11 10 11 11 10 8 6 6 8 10 10 10 12 13 13 14 16 16 17 17 19 21 24 25 27 29 31 32 32
17 20 15 15 12 12 11 12 11 12 12 13 12 13 15 15 14 15 15 16 17 18 17 19 22 25 27 30 31 33 35 35
22 22 19 17 15 13 13 15 18 16 14 15 14 13 13 16 18 20 20 19 19 19 22 25 26 30 33 34 36 36 39 38
27 23 21 19 22 19 19 18 17 18 18 17 18 19 19 18 17 17 20 20 22 24 25 26 26 31 35 38 38 41 42 41
29 28 26 23 25 24 21 22 23 23 23 19 19 18 18 21 22 21 22 24 25 23 25 27 27 27 27 32 38 41 46 46
31 31 26 28 28 27 24 23 24 25 25 24 24 23 23 24 27 28 29 28 27 27 29 28 28 29 32 30 30 36 39 40
32 36 34 32 34 33 32 31 29 28 29 28 27 26 24 27 30 31 29 27 27 28 31 32 32 33 33 34 33 34 34 38
32 32 35 34 31 33 34 34 33 32 32 31 31 33 32 29 29 28 28 29 31 33 34 35 35 37 37 36 39 39 38 39
30 32 37 37 38 38 38 38 37 35 35 37 36 36 36 33 32 34 35 36 37 37 33 36 36 36 37 38 41 40 43 42
33 30 36 37 39 39 42 42 42 44 43 44 41 39 37 37 39 39 37 37 37 36 37 38 37 35 36 39 41 43 43 44
39 38 37 35 39 43 41 43 45 47 48 48 41 40 39 40 42 40 41 41 40 39 39 39 38 36 37 38 40 42 43 44

GFSFLT1_500_spd_057.txt.gz
Wind_Speed
16 18 17 16 14 15 12 6 15 6 10 13 14 28 33 28 31 35 39 31 25 39 35 48 47 40 35 31 29 26 25 25
15 17 16 16 13 12 8 10 8 19 15 9 4 25 27 25 26 27 30 32 34 31 32 42 43 38 32 28 26 26 26 28
14 14 14 15 13 11 8 7 10 9 10 6 8 7 16 22 26 29 24 20 15 18 20 31 36 32 27 27 27 26 26 27
11 13 12 13 13 10 8 7 7 9 7 10 9 8 5 5 17 17 22 21 16 15 14 18 22 24 25 24 25 26 28 27
11 12 13 10 12 8 5 5 5 5 4 1 8 16 8 10 7 12 11 15 17 17 20 19 22 21 22 21 24 25 25 23
12 10 12 11 8 9 5 5 5 4 4 3 3 4 6 9 10 15 15 18 21 17 19 24 24 22 20 21 17 18 18 19
14 13 13 11 8 7 7 5 5 5 4 3 2 3 3 5 5 5 15 18 18 18 18 20 20 16 17 15 15 16 15 14
15 15 17 13 12 9 7 6 4 2 2 3 4 6 6 5 5 5 7 9 10 11 11 11 13 15 17 19 17 18 19 20
15 16 18 15 14 13 10 6 6 5 3 4 5 6 6 7 8 9 10 11 12 12 11 12 14 16 17 20 22 22 25 30
15 17 19 17 14 15 13 8 7 8 8 10 8 9 11 11 10 11 12 14 15 15 16 16 17 18 20 22 24 25 28 32
17 20 21 21 18 16 16 14 12 13 13 13 11 12 10 9 10 13 15 18 19 18 19 19 21 20 23 26 26 30 32 33
22 21 23 25 24 21 20 18 19 19 18 17 16 16 16 15 14 14 15 16 18 18 19 20 23 24 25 25 26 29 33 36
24 23 25 25 25 23 24 25 22 22 22 20 20 19 19 17 17 17 18 19 20 21 23 24 24 25 26 29 29 29 31 34
23 25 26 29 30 28 29 29 29 27 26 25 23 22 21 21 22 24 25 25 25 27 27 26 25 26 27 28 29 30 32 37
27 27 28 30 33 33 33 32 33 32 30 28 28 27 25 26 29 29 28 29 29 29 28 27 27 30 31 31 32 33 36 37
36 33 32 33 33 35 37 37 37 40 38 35 32 33 33 32 32 32 33 33 29 28 30 32 33 36 38 38 39 40 38 38
35 37 37 37 37 34 35 37 36 39 41 38 36 37 38 36 36 35 35 37 35 35 37 39 39 36 36 36 40 41 41 41
34 37 39 41 41 42 41 39 42 43 44 43 41 42 42 41 40 41 40 40 40 40 40 40 40 40 37 38 41 45 46 45
33 33 36 39 39 40 42 42 44 44 45 46 47 47 48 46 45 43 42 44 44 44 43 43 44 43 45 44 44 45 46 45

GFSFLT1_500_spd_060.txt.gz
Wind_Speed
17 18 15 15 15 15 16 16 11 17 10 20 22 26 30 37 37 34 33 30 33 33 34 41 44 50 42 41 37 35 32 25
13 16 15 11 14 14 14 13 11 13 13 13 13 15 20 35 35 33 29 29 33 31 22 27 35 42 50 43 42 38 30 25
11 13 12 12 12 12 13 11 10 12 10 7 5 9 13 27 31 29 27 28 27 23 29 30 39 35 39 47 39 32 26 23
11 10 10 12 10 10 11 9 8 10 12 4 4 4 3 6 18 23 21 21 21 20 16 19 25 28 35 34 30 25 22 21
12 10 9 9 10 8 8 7 6 7 9 9 5 8 5 3 3 17 20 21 21 16 13 12 10 12 20 23 25 23 22 23
16 10 8 7 8 7 5 5 5 5 5 4 5 8 10 7 7 6 7 9 14 15 13 14 10 10 13 21 22 23 22 19
15 12 12 8 9 7 6 4 5 4 3 4 3 5 2 3 2 4 5 13 11 15 15 12 15 16 17 20 22 20 14 11
15 14 15 11 9 11 9 6 2 2 3 4 4 4 2 2 1 3 2 2 1 2 5 8 10 12 15 19 19 16 16 11
14 15 17 13 11 12 11 8 5 2 2 3 5 5 5 3 3 3 5 6 9 9 11 13 14 13 12 12 15 16 16 17
18 17 19 19 14 12 12 9 8 6 5 6 7 8 7 7 8 8 6 7 8 9 11 12 12 13 13 16 17 17 20 22
21 21 20 22 19 16 14 14 14 11 10 11 9 8 8 9 7 7 9 11 12 13 14 14 15 14 16 18 17 22 24 24
22 23 20 22 24 22 19 18 18 16 16 17 15 12 11 12 13 13 11 11 13 14 17 17 16 16 18 21 22 21 22 24
27 25 24 25 24 27 25 24 23 23 21 19 18 16 15 15 16 16 16 15 14 16 17 17 19 22 24 25 24 23 25 25
28 27 26 25 26 28 28 26 26 28 27 23 21 20 19 19 21 23 21 21 21 22 23 24 25 26 26 26 26 26 25 26
30 28 27 28 28 31 31 30 29 31 32 29 27 25 25 25 26 27 28 26 26 25 25 26 29 29 26 27 29 30 32 33
31 27 27 31 29 28 31 34 34 33 33 34 33 32 32 31 31 32 32 33 31 33 31 30 30 31 31 32 34 36 38 40
26 29 32 34 35 36 35 34 34 36 36 37 35 37 36 35 34 34 35 35 35 35 35 34 34 35 35 37 39 39 40 40
34 35 37 37 38 40 40 39 37 39 39 36 38 39 39 37 38 40 39 40 40 38 36 39 40 41 41 41 42 45 44 44
33 35 36 36 39 43 44 44 43 43 41 40 40 42 42 41 42 43 44 44 43 43 43 40 42 43 43 42 45 47 48 48

GFSFLT1_500_spd_063.txt.gz
Wind_Speed
20 21 14 16 11 11 12 15 15 15 12 11 8 15 18 24 24 26 31 27 22 26 30 27 28 29 29 43 42 37 38 36
17 19 12 16 8 9 10 12 12 14 12 13 5 12 14 22 29 31 33 29 27 28 33 31 26 26 37 41 40 42 39 38
17 17 10 12 6 6 8 9 10 12 11 9 5 11 9 12 15 29 33 29 30 27 27 27 25 22 27 38 42 39 45 42
13 15 10 9 5 6 7 7 8 8 10 6 4 9 6 8 9 20 27 28 29 28 25 21 20 24 27 35 37 29 36 42
7 15 12 8 7 4 6 5 7 6 7 9 9 4 4 2 7 19 26 22 22 21 20 20 20 26 29 32 35 17 27 25
8 14 14 8 7 4 5 3 5 5 3 5 6 8 9 2 5 4 20 27 26 24 22 17 16 15 15 20 19 21 22 24
10 9 13 13 9 8 5 6 5 5 2 1 3 4 6 8 8 3 5 7 15 19 17 18 20 14 13 14 19 22 18 22
9 8 13 15 13 12 8 7 8 4 2 1 3 3 3 3 3 3 3 9 14 15 18 20 16 14 16 19 20 19 16 17
14 12 12 16 16 15 12 8 9 9 6 4 2 1 2 1 0 3 3 3 3 5 6 10 13 14 14 14 15 16 18 18
21 17 14 17 18 18 14 12 11 10 11 9 7 4 3 1 4 5 4 4 4 7 10 13 14 18 21 22 21 22 23 21
24 22 18 18 19 18 17 15 14 12 13 11 8 7 7 5 6 5 4 5 6 7 8 9 12 14 15 16 16 17 18 17
26 28 23 20 19 22 21 20 16 15 16 17 16 13 12 11 10 9 8 8 8 9 9 11 13 15 16 14 15 18 19 20
30 31 31 24 20 22 25 24 24 18 20 20 18 15 14 13 13 14 12 11 11 12 11 12 15 17 18 20 21 22 22 23
29 31 30 29 24 23 24 29 29 26 23 23 21 19 18 19 18 17 17 17 18 16 15 16 20 22 24 25 25 27 27 27
31 30 29 27 28 28 23 23 29 31 27 24 23 22 23 25 26 23 20 21 22 22 22 21 21 24 23 25 28 28 29 30
31 31 28 30 30 32 29 27 24 28 30 28 26 26 28 28 29 30 31 27 26 26 27 27 25 27 28 26 29 30 32 35
33 30 29 31 31 30 33 31 32 32 29 31 32 33 34 33 33 34 36 35 33 31 30 30 32 29 28 30 32 36 38 38
36 32 32 31 32 35 34 36 35 36 38 34 35 36 35 35 36 37 36 36 37 37 36 36 37 35 33 33 37 41 42 41
39 38 39 34 35 38 39 40 39 40 41 42 40 40 40 39 40 40 39 39 42 43 44 43 44 40 38 38 39 42 44 44

GFSFLT1_500_spd_066.txt.gz
Wind_Speed
12 19 17 18 13 14 12 12 14 14 9 10 9 13 16 17 19 24 32 27 28 27 31 29 32 27 27 25 28 32 42 42
12 16 15 16 11 12 9 10 12 13 11 10 8 12 12 15 20 25 28 31 32 32 27 26 30 25 25 27 28 32 36 42
10 13 13 13 10 9 8 7 10 12 11 11 8 7 12 18 23 27 32 32 36 34 28 25 29 29 27 27 27 33 29 41
7 12 10 12 10 9 8 6 7 10 10 10 3 7 6 6 11 18 26 31 36 34 29 26 26 30 27 29 24 28 38 41
7 12 9 12 12 10 8 6 5 7 8 7 8 9 5 6 7 10 23 25 27 29 30 28 27 27 27 25 28 27 27 37
6 9 13 12 12 10 9 7 5 6 6 5 4 4 8 6 4 5 20 28 29 32 32 29 29 28 25 24 28 27 28 27
11 10 17 12 13 11 10 9 8 7 5 5 4 4 3 5 7 4 8 23 30 24 24 23 25 22 23 25 33 27 19 23
12 7 18 17 12 14 13 12 11 9 6 5 3 2 2 0 1 4 6 10 8 13 20 21 19 21 20 19 19 24 26 24
11 9 12 17 15 14 15 14 13 12 10 8 6 3 2 3 2 2 2 6 6 10 16 18 18 22 21 18 21 22 25 27
15 15 19 15 18 16 16 16 16 14 14 13 10 8 6 6 6 6 2 4 5 7 7 7 9 11 12 14 17 18 21 25
26 24 20 16 18 19 18 20 18 17 18 16 14 10 10 10 7 6 6 7 7 9 10 11 13 16 16 16 17 19 22 22
31 25 19 20 20 21 23 22 22 20 20 20 18 15 12 13 13 11 11 10 9 10 10 11 13 14 16 16 17 20 19 20
31 27 22 21 23 26 27 27 25 25 23 22 22 19 15 13 14 13 14 15 14 14 14 14 14 14 14 15 17 20 20 22
36 31 26 20 18 22 24 27 26 25 27 27 24 22 20 19 18 17 15 16 19 18 18 19 19 18 18 21 23 24 25 26
34 31 27 22 22 23 26 24 22 25 27 28 27 26 25 25 25 23 22 21 19 20 22 25 24 25 23 23 25 26 27 29
38 34 28 29 28 28 28 30 27 26 23 27 28 29 30 30 30 30 29 27 27 27 27 27 29 30 28 27 28 31 32 30
42 40 38 35 34 33 34 35 35 32 32 29 30 34 34 32 32 31 35 35 35 36 34 34 34 33 31 32 32 33 35 37
45 40 43 38 41 37 38 39 39 38 38 33 35 35 34 36 38 40 38 37 39 37 37 39 40 39 37 38 39 40 41 41
45 45 45 43 38 36 39 39 39 39 36 40 38 37 38 39 40 41 41 43 42 42 43 43 44 44 42 43 43 44 48 47

GFSFLT1_500_spd_069.txt.gz
Wind_Speed
24 17 13 13 14 11 12 13 14 14 12 13 18 12 17 20 18 28 35 30 28 24 22 29 24 21 22 20 21 26 30 34
17 14 11 12 12 9 11 12 12 11 9 12 16 12 14 19 24 36 34 35 31 26 29 30 28 22 25 24 24 26 27 30
15 13 11 10 10 8 10 11 11 7 8 11 12 8 13 15 20 27 39 41 40 33 31 29 29 30 33 31 28 29 30 28
17 14 10 9 10 10 11 11 11 7 7 7 2 9 14 15 20 26 31 35 41 41 35 39 30 32 30 29 27 26 27 27
20 16 10 10 11 11 13 11 10 7 6 5 5 7 9 13 16 23 28 35 40 37 34 39 35 31 30 31 32 28 28 27
19 12 11 10 12 12 13 11 10 7 8 5 5 5 4 5 12 12 17 22 26 40 34 33 35 31 30 32 31 28 28 29
21 16 12 13 11 12 12 11 10 10 9 8 3 5 5 4 3 10 13 23 22 31 32 33 33 33 32 33 26 31 30 30
24 15 9 16 11 12 14 13 12 11 9 10 7 2 4 4 3 2 8 19 25 27 28 32 31 32 35 29 30 29 26 30
23 17 11 15 13 10 13 15 14 14 12 11 11 7 3 5 8 4 1 7 14 21 28 29 27 26 26 27 30 27 35 30
24 21 15 15 16 15 11 15 17 16 16 14 13 11 9 6 7 11 5 4 6 12 16 17 19 21 22 26 22 23 25 30
25 20 20 21 19 20 16 14 16 18 20 18 17 15 13 10 9 7 9 9 8 9 10 12 13 15 16 17 15 19 21 24
28 24 23 21 19 22 21 18 18 18 20 20 20 19 18 16 15 13 10 11 10 11 12 13 13 15 17 18 18 20 19 19
26 26 23 22 22 23 21 20 20 20 21 22 22 22 22 21 18 19 16 15 15 14 14 15 17 18 19 19 20 21 22 24
31 31 28 26 25 24 23 22 21 21 19 22 24 25 25 24 22 19 18 16 17 19 18 19 19 21 22 21 21 21 22 24
37 35 35 30 29 27 25 26 26 23 24 27 27 28 27 26 25 24 24 23 22 21 22 24 24 26 25 25 26 27 27 30
43 38 37 34 32 31 28 27 28 28 27 22 24 30 29 30 29 28 28 28 29 29 29 29 29 30 29 30 32 32 32 33
48 43 39 38 35 33 33 33 29 30 30 30 29 29 30 32 34 34 35 34 34 35 32 33 36 36 35 36 37 37 39 39
46 41 46 41 37 40 35 36 32 33 34 35 34 35 37 37 37 39 40 41 39 38 38 37 37 38 41 42 44 45 45 45
49 46 43 47 44 45 45 44 39 37 39 38 39 41 41 42 43 43 43 43 44 43 42 42 42 42 42 45 46 49 51 50

GFSFLT1_500_spd_072.txt.gz
Wind_Speed
29 26 26 24 15 10 11 9 11 12 15 17 18 21 19 20 24 22 18 29 33 30 40 35 29 23 20 19 19 21 28 29
30 28 28 19 15 8 9 9 10 11 13 13 15 21 15 14 19 19 18 34 28 35 32 31 27 25 24 24 21 22 24 23
30 28 28 16 12 8 9 9 10 11 11 11 14 13 8 10 15 17 19 33 37 36 31 28 27 29 22 24 26 21 23 25
31 28 27 15 10 9 8 10 10 10 9 8 8 7 8 10 10 16 20 29 30 33 32 30 27 27 32 27 26 24 26 27
30 28 25 14 11 9 9 11 11 10 7 8 5 5 7 8 12 13 21 25 33 35 34 31 28 28 28 27 28 31 29 26
27 28 24 15 13 10 11 12 11 11 8 7 6 5 4 5 9 12 14 25 33 35 40 36 35 33 36 33 30 29 30 28
30 31 26 19 13 9 12 13 12 12 10 7 6 5 4 4 6 6 12 17 29 36 39 37 37 34 38 35 33 33 34 31
32 33 28 20 15 9 12 16 15 15 12 10 8 6 4 3 2 4 6 12 18 20 24 39 38 33 32 36 35 34 35 31
30 31 27 20 15 10 11 19 17 17 15 12 10 9 7 5 3 3 4 6 8 21 20 26 38 33 33 32 35 37 38 32
27 28 26 23 17 15 13 14 16 15 16 13 12 12 12 10 10 10 6 3 3 12 20 24 32 34 33 29 33 34 32 31
30 29 30 27 24 20 16 15 11 13 15 14 13 14 15 15 13 12 9 10 8 7 10 16 21 21 23 24 22 28 27 26
30 33 34 32 29 21 19 17 13 14 14 14 15 15 17 18 18 18 15 13 12 12 12 11 11 13 15 16 17 19 18 21
27 32 33 33 30 25 20 16 13 12 11 13 16 18 19 19 19 18 15 15 16 16 15 16 17 18 17 17 19 21 22 24
29 31 29 31 27 23 20 19 17 16 18 19 20 21 22 21 20 19 17 15 16 17 19 21 22 22 20 20 21 23 24 25
35 38 37 34 27 24 24 23 23 21 19 18 23 25 24 24 23 22 21 20 20 21 22 21 23 24 24 25 27 28 29 28
41 41 39 36 31 29 28 27 26 25 23 22 22 19 22 28 27 26 26 26 26 26 26 27 28 28 28 29 30 31 32 35
44 44 45 40 37 36 32 29 28 28 29 24 23 25 26 25 26 30 32 32 33 33 31 32 35 35 35 36 37 38 39 40
47 48 46 42 42 40 39 35 36 33 31 29 27 28 28 29 30 32 34 36 37 38 38 39 38 35 38 41 44 45 44 44
46 49 50 47 48 47 43 43 36 35 36 37 35 33 34 33 35 38 40 41 41 42 43 44 46 47 46 46 46 46 49 49

GFSFLT1_500_spd_075.txt.gz
Wind_Speed
41 36 29 28 29 27 22 20 16 14 14 16 19 22 22 22 23 19 22 19 23 28 30 34 37 39 41 31 28 35 33 30
39 35 32 26 25 27 25 18 12 10 13 14 18 20 20 19 18 14 20 25 24 33 33 29 34 36 27 29 27 31 33 31
32 32 34 23 26 29 21 17 10 9 13 14 16 15 10 7 8 7 17 19 30 31 33 34 39 35 22 25 23 22 21 23
30 28 27 25 26 28 19 14 10 10 13 14 13 12 12 10 7 6 8 11 27 32 25 33 33 26 26 27 27 22 20 21
26 27 26 24 27 28 19 15 11 11 13 12 11 9 8 4 3 6 8 8 18 24 33 31 31 27 29 30 26 22 25 22
25 19 22 27 30 27 18 16 13 12 13 12 10 8 7 4 4 2 6 8 14 20 30 33 32 30 28 25 27 28 26 27
26 26 26 28 28 24 19 17 15 14 13 12 10 9 7 7 3 2 2 6 11 18 22 28 34 31 31 30 25 30 30 26
31 24 29 28 27 23 20 20 17 15 13 12 10 9 7 8 6 2 2 3 8 11 21 29 31 29 33 32 27 29 31 30
34 27 32 32 29 24 22 19 17 16 14 13 11 10 8 7 8 10 8 6 6 10 15 22 26 26 28 29 29 29 30 33
26 30 36 35 31 27 23 17 12 14 13 11 11 10 10 11 11 13 12 10 8 5 11 14 18 22 28 31 33 31 32 33
27 32 38 37 32 28 25 18 13 12 13 11 11 11 11 11 12 13 15 11 8 7 6 13 18 21 23 27 33 33 32 28
35 33 34 36 33 30 24 21 16 14 10 10 11 11 12 12 12 11 11 10 9 8 8 7 9 11 12 14 19 25 29 28
36 38 36 33 35 34 30 24 16 14 15 15 14 15 15 14 13 13 12 10 7 8 10 11 11 12 13 15 16 17 19 21
37 39 42 39 40 36 23 20 18 20 22 21 20 19 17 17 16 16 15 14 11 10 11 12 14 15 16 18 19 20 21 23
36 26 41 42 37 31 27 25 26 23 25 22 19 20 19 19 20 21 20 19 18 17 17 18 18 19 20 22 24 25 26 27
38 33 30 33 36 36 34 31 30 28 27 23 23 21 19 17 18 18 20 23 23 23 23 24 25 25 27 28 28 29 30 31
39 40 37 38 41 40 38 36 34 31 27 27 29 26 21 21 21 20 20 21 23 24 26 27 28 31 28 31 33 35 38 39
40 42 43 42 40 41 41 38 33 31 27 37 29 27 24 22 22 22 23 24 25 27 29 30 31 32 32 34 36 38 39 38
36 40 44 45 45 45 44 43 40 38 30 32 32 31 29 27 26 26 27 28 30 31 32 34 34 34 35 36 39 42 45 46

GFSFLT1_500_spd_078.txt.gz
Wind_Speed
38 40 38 36 31 31 31 29 25 27 25 22 23 20 20 21 23 25 26 26 24 24 30 29 32 30 41 47 43 35 34 30
37 37 38 36 30 30 29 25 22 29 21 22 20 18 18 20 24 27 24 25 19 27 23 28 27 33 37 44 42 40 33 28
36 33 34 32 28 31 26 23 22 25 22 20 16 15 16 15 17 18 16 19 24 26 30 26 27 33 35 40 39 38 30 28
33 33 33 30 27 31 25 21 23 23 23 17 14 13 12 13 15 13 8 14 22 27 32 29 30 32 32 37 37 23 24 22
31 30 30 27 30 28 25 20 23 23 23 15 12 11 10 7 9 13 9 9 15 20 30 32 32 31 30 32 23 25 21 19
31 30 27 31 30 28 27 20 24 25 22 15 12 10 8 5 7 6 9 6 10 22 27 29 31 32 33 32 25 24 24 23
30 28 32 29 31 29 23 22 25 26 20 16 12 10 7 2 3 4 4 4 9 10 19 27 31 29 28 26 28 28 30 28
31 32 33 28 28 26 23 24 26 25 21 16 13 9 6 1 1 3 6 4 5 11 19 20 24 26 30 31 30 31 27 27
31 35 34 29 30 27 23 24 25 23 21 16 14 11 8 4 2 2 8 6 5 7 12 18 20 24 26 30 32 35 28 25
34 32 32 33 31 31 27 25 23 21 20 18 17 14 11 8 5 2 3 8 4 4 9 21 24 25 23 29 29 29 28 26
36 34 39 37 36 35 28 28 23 19 17 19 18 16 14 12 9 6 4 5 4 3 3 11 15 16 12 17 27 23 25 28
38 38 34 42 37 37 30 30 24 20 15 15 17 18 18 17 15 12 11 8 4 2 4 4 4 8 12 12 16 20 21 26
36 38 32 41 38 37 33 32 24 19 17 17 18 19 21 18 17 15 14 12 9 7 8 8 8 9 11 12 12 12 12 13
38 35 36 40 38 36 37 31 23 22 21 22 21 22 22 20 18 18 18 16 14 12 11 11 13 16 16 16 16 16 16 16
41 37 36 41 38 38 39 37 27 27 27 24 23 24 24 23 21 20 20 19 18 17 16 17 17 17 17 17 18 18 19 20
42 36 37 46 45 44 45 38 30 32 34 28 26 26 25 23 22 21 19 17 20 21 20 21 21 20 20 22 23 23 24 25
38 37 35 44 49 48 45 39 39 41 38 32 29 29 27 26 24 21 19 18 18 18 19 21 22 21 23 25 27 28 29 31
38 38 40 37 28 50 48 44 45 43 40 35 32 33 34 34 30 24 24 22 21 21 21 21 22 23 24 26 28 31 33 35
44 43 39 41 39 38 44 44 44 42 38 36 35 30 38 31 27 26 26 26 25 24 24 24 25 28 28 29 30 33 35 36

GFSFLT1_500_spd_081.txt.gz
Wind_Speed
33 36 41 38 36 32 29 27 26 28 27 28 31 28 22 21 24 26 28 29 28 29 27 25 27 30 24 38 36 39 37 23
30 39 39 35 35 32 28 27 26 27 26 27 26 21 19 20 22 25 27 30 31 31 28 27 31 31 33 31 39 39 39 32
30 39 27 32 33 31 26 26 27 26 27 24 22 20 18 19 20 22 25 27 29 31 31 32 35 31 31 29 35 40 43 37
30 31 26 31 30 27 26 26 29 25 23 21 19 18 15 18 17 21 24 25 24 26 28 24 30 27 26 26 29 37 41 40
28 28 25 27 27 27 27 29 28 24 20 21 19 15 15 14 16 15 17 21 21 25 28 29 25 26 32 29 30 35 37 36
27 28 30 25 30 29 29 30 26 23 20 21 20 14 14 13 14 14 14 20 18 20 27 33 32 33 29 31 32 36 39 31
29 31 33 28 32 31 32 31 26 21 20 22 18 14 12 11 11 11 9 14 13 13 18 28 32 30 32 29 27 33 27 24
25 30 32 28 33 32 34 30 23 20 23 22 18 15 11 10 7 6 5 7 11 10 15 25 27 33 28 29 34 32 28 27
31 33 32 32 32 30 31 29 23 21 24 22 20 15 13 12 11 9 4 5 5 6 9 14 15 25 25 26 31 29 28 27
29 34 32 32 33 30 31 28 23 23 21 21 21 17 15 14 14 11 8 5 6 4 10 14 17 21 23 19 26 28 28 25
30 32 34 35 36 30 33 27 25 25 19 19 22 21 18 17 16 14 12 10 6 5 3 13 20 22 20 21 22 25 25 26
33 34 36 38 32 33 34 30 28 23 20 17 19 22 21 20 18 17 15 13 8 7 6 7 14 17 18 18 11 19 23 24
35 36 34 35 37 38 37 35 31 24 24 19 17 19 22 22 21 19 17 15 12 8 10 11 10 13 16 16 19 13 14 16
37 37 38 38 41 44 42 39 33 25 25 22 21 20 21 23 23 21 20 18 16 13 10 12 15 15 15 15 16 16 16 16
39 39 41 40 44 43 43 42 33 30 26 24 24 24 23 24 24 24 23 21 20 18 16 14 14 12 13 14 15 16 17 18
39 40 40 43 42 44 43 43 39 37 33 30 31 28 25 27 26 26 26 25 24 22 21 19 17 16 17 17 18 19 20 22
38 40 39 39 41 36 47 45 43 41 38 39 35 33 30 29 29 27 27 27 25 24 23 22 21 20 22 22 22 24 27 28
39 39 42 44 39 44 49 47 47 42 41 42 40 36 34 32 31 31 30 29 28 28 24 23 23 22 23 23 25 27 28 29
40 37 41 43 40 43 48 50 50 46 44 43 42 40 38 35 34 32 39 37 35 33 30 26 25 24 25 25 26 27 28 30

GFSFLT1_500_spd_084.txt.gz
Wind_Speed
35 33 35 36 39 38 32 29 29 31 27 26 26 27 25 26 25 23 24 25 25 26 27 25 27 26 25 26 29 34 36 38
33 32 33 35 40 37 28 27 30 28 23 27 24 25 22 26 20 19 23 25 26 27 27 27 28 25 26 28 32 31 37 41
31 29 33 39 39 29 24 27 27 25 24 26 24 21 18 20 19 21 23 24 25 27 27 29 31 26 28 32 31 30 35 38
32 32 33 40 29 26 24 26 24 23 26 24 22 16 17 17 19 20 21 23 25 26 27 29 31 29 34 36 32 31 36 40
31 33 30 36 24 27 26 26 24 23 26 23 19 13 16 18 19 18 20 21 18 20 23 29 30 32 37 36 29 28 35 38
31 29 28 29 26 27 27 25 24 24 26 22 18 13 17 18 17 18 19 19 17 21 25 29 30 35 33 32 32 30 32 38
28 28 28 30 27 28 30 27 25 25 26 21 16 14 18 16 16 18 17 16 16 18 21 27 29 32 25 32 32 25 25 31
34 31 27 31 30 30 30 30 27 26 27 20 15 15 18 16 16 15 12 11 11 19 13 21 25 32 29 30 30 29 29 29
27 34 36 35 31 30 32 34 29 28 27 20 14 17 19 16 16 16 14 11 10 16 16 12 15 28 29 30 32 29 25 28
25 29 32 35 33 31 33 35 29 28 24 22 14 21 17 18 18 19 16 12 13 14 12 9 16 16 25 25 26 27 27 28
31 35 37 36 34 33 34 33 25 28 25 21 16 21 20 20 20 20 18 16 14 12 12 11 15 14 22 23 22 25 29 22
34 33 33 30 34 34 35 31 26 30 26 19 17 18 22 22 22 22 20 17 16 12 11 8 15 19 18 20 21 21 25 24
34 35 32 34 36 37 33 29 28 31 27 21 19 18 19 23 23 22 20 20 19 14 8 9 10 17 18 19 17 13 14 22
33 35 35 38 35 33 33 31 31 33 29 23 23 23 20 20 22 22 20 21 20 18 13 9 11 10 14 19 20 20 17 18
32 36 37 37 37 36 37 36 35 34 28 27 27 25 22 21 20 20 22 22 21 20 17 13 9 11 14 16 19 22 19 20
32 35 37 39 40 41 41 41 38 38 35 32 32 25 25 26 22 22 22 23 24 23 21 20 18 17 18 19 20 21 22 22
25 39 39 42 41 43 45 43 43 40 46 39 36 37 32 30 26 26 24 24 27 27 25 24 24 24 24 23 23 23 23 23
28 32 43 43 43 45 45 42 41 44 45 43 41 40 38 35 32 32 29 27 29 31 30 28 27 29 30 28 27 27 27 27
18 34 37 40 43 46 46 44 42 46 46 45 45 44 41 40 37 37 33 31 29 34 34 33 32 31 32 31 32 30 29 28

GFSFLT1_500_spd_087.txt.gz
Wind_Speed
43 37 36 35 38 38 39 35 30 32 34 31 30 26 24 25 28 26 25 20 19 20 22 22 22 22 24 22 24 25 27 33
35 32 33 39 38 38 37 29 24 28 32 28 27 25 23 24 26 24 20 18 17 20 20 22 24 24 25 24 22 25 28 38
32 34 36 39 36 40 30 26 22 28 29 27 27 25 22 25 24 21 18 20 22 22 22 23 26 26 27 24 24 27 30 37
33 36 35 34 35 31 31 19 24 26 27 30 25 22 23 23 22 19 18 22 22 19 21 25 26 27 27 28 27 28 34 31
28 34 32 32 29 30 30 22 30 28 27 28 22 21 22 21 19 18 21 22 18 19 18 21 24 26 27 28 28 24 33 34
31 32 31 28 34 35 26 28 33 31 29 26 24 23 20 19 17 18 21 20 16 18 21 23 26 24 26 28 30 29 36 36
37 36 37 41 41 35 28 34 32 29 30 27 24 22 17 17 16 18 20 17 13 17 20 22 22 28 30 27 32 36 35 30
31 33 36 35 33 33 32 32 31 31 31 27 25 19 17 17 15 20 18 13 13 16 17 17 16 24 24 25 29 36 30 30
26 32 34 36 32 30 34 34 33 32 31 28 25 20 16 16 17 21 18 16 16 16 16 16 16 17 20 27 25 34 31 29
27 27 30 34 38 34 35 33 31 34 33 29 27 22 15 17 21 21 19 19 19 17 15 14 17 12 16 29 26 29 32 31
25 26 29 33 35 33 32 34 30 31 33 30 28 20 13 19 22 21 20 20 19 19 16 13 16 10 17 28 31 31 34 31
23 31 31 32 26 25 31 29 30 30 29 29 24 18 14 19 24 21 21 21 20 19 16 14 14 13 13 24 28 29 28 31
21 28 29 33 32 30 27 28 27 31 31 30 26 21 16 18 23 24 22 21 20 19 16 14 11 10 12 18 20 21 22 26
20 28 33 33 31 31 31 33 30 33 31 31 29 26 22 18 18 23 23 20 19 18 17 13 11 8 9 11 15 19 21 20
19 28 35 34 34 34 32 34 34 31 28 31 31 26 23 21 21 20 20 21 19 18 17 15 13 12 12 12 16 22 20 19
18 22 28 32 33 36 38 36 35 33 30 33 33 30 27 25 25 22 20 19 19 17 17 17 17 16 15 17 18 23 27 27
15 22 28 31 33 37 39 37 37 37 35 35 35 33 32 31 28 28 26 22 20 20 19 19 20 21 21 20 20 23 25 27
15 16 21 31 33 38 41 41 41 41 39 39 37 36 36 36 34 31 31 28 25 23 22 23 24 26 27 28 28 28 28 28
14 16 20 26 36 40 43 46 45 44 42 42 45 44 45 46 40 37 35 33 31 28 27 27 28 29 32 34 34 34 35 35

GFSFLT1_500_spd_090.txt.gz
Wind_Speed
50 45 48 49 44 41 40 42 37 36 37 42 38 31 32 36 35 32 31 26 25 25 25 26 25 25 26 25 25 26 24 25
39 45 42 38 40 39 44 43 37 35 33 37 32 30 34 36 32 31 28 25 25 23 20 21 23 25 26 24 25 22 25 25
42 39 39 39 36 38 40 33 36 30 35 38 32 34 34 34 29 27 26 27 25 21 21 21 25 27 28 27 25 26 26 25
35 35 33 33 39 40 42 35 33 30 36 39 35 37 34 29 24 26 27 27 24 22 21 22 26 28 27 29 27 28 27 27
38 39 40 36 35 39 33 34 32 32 35 35 34 34 29 27 26 26 28 25 23 21 20 21 20 21 27 30 30 29 30 27
37 37 33 38 38 31 31 33 32 33 35 35 35 32 29 28 24 25 27 24 21 19 21 20 19 21 23 29 30 29 31 26
32 40 35 38 38 36 35 31 24 34 36 38 36 32 31 27 24 25 26 22 18 19 19 18 19 21 25 30 33 30 30 27
36 39 31 34 37 34 33 31 30 36 35 36 34 33 31 26 23 26 24 20 17 16 16 17 16 18 23 28 30 29 30 31
30 28 25 32 31 30 34 35 36 34 34 34 34 34 30 26 24 25 22 18 18 18 16 14 18 20 25 25 26 29 32 34
28 32 30 27 31 36 31 30 32 34 35 37 35 33 30 25 24 25 20 18 20 19 17 18 19 20 23 21 22 27 29 28
14 25 37 35 36 37 36 33 35 37 36 36 35 34 32 26 24 23 20 21 20 15 17 20 20 20 22 19 24 26 26 30
20 19 25 28 31 30 32 36 43 44 39 37 37 37 30 26 24 22 21 23 19 16 18 18 18 17 19 17 23 29 29 28
21 24 28 32 30 31 32 39 38 38 38 38 39 36 29 30 22 20 22 24 19 18 18 17 17 16 12 11 23 27 28 32
21 25 28 32 31 35 25 14 16 6 42 39 34 31 32 30 23 18 21 22 22 20 20 17 16 14 11 8 13 28 27 27
19 19 24 29 30 34 32 30 26 17 20 27 34 32 32 32 25 21 19 19 22 20 19 17 15 14 11 8 10 20 22 24
15 14 19 26 30 29 28 27 24 23 25 30 34 33 33 32 30 25 22 19 20 20 18 16 15 15 13 9 11 14 19 24
18 13 15 20 27 33 34 31 28 27 29 32 28 32 35 35 30 27 26 24 22 21 19 17 17 16 15 14 13 15 19 25
11 13 13 20 24 33 37 37 34 34 34 34 35 32 36 38 34 31 30 29 27 24 24 21 20 20 20 20 20 20 20 24
11 9 14 14 23 30 35 36 36 36 37 37 38 38 36 37 36 34 34 34 32 29 28 26 25 24 25 25 24 25 27 29

GFSFLT1_500_spd_093.txt.gz
Wind_Speed
51 51 54 59 68 73 70 65 52 42 44 43 46 50 39 37 36 32 34 34 31 29 28 28 29 31 30 31 29 27 28 29
49 47 49 51 57 62 66 63 54 47 46 42 46 46 32 32 31 33 35 31 31 28 27 30 28 30 30 31 30 28 29 31
45 47 46 48 49 52 53 46 50 45 44 39 43 39 37 41 36 37 35 33 31 26 29 28 28 27 28 29 29 28 29 31
46 45 37 45 45 50 49 43 43 46 41 40 44 41 38 39 35 36 29 32 29 27 29 27 28 27 27 27 28 28 31 34
42 43 37 44 47 41 44 42 40 41 37 43 46 37 34 40 30 28 32 28 29 29 27 27 26 25 23 24 28 28 33 34
37 37 34 43 38 38 41 44 36 34 37 45 40 41 39 39 33 32 29 28 30 28 26 25 23 23 22 22 22 29 34 35
28 31 33 41 38 40 37 42 41 40 39 39 40 40 35 37 30 28 26 30 31 26 25 24 22 23 22 21 23 29 34 34
26 29 31 37 37 37 38 34 34 36 38 41 40 36 38 34 30 28 29 31 29 25 23 22 21 21 19 22 23 25 31 35
33 32 32 31 37 31 38 35 32 36 40 38 39 38 37 33 30 30 30 31 26 24 22 21 20 17 22 24 25 27 28 32
21 23 31 34 37 33 35 31 32 37 38 39 36 38 35 33 32 32 32 29 25 25 22 23 23 22 21 23 26 26 28 32
19 20 29 27 32 31 35 36 40 40 48 40 38 38 39 37 35 34 30 29 27 26 21 23 26 24 22 21 25 22 25 32
13 14 22 32 26 27 30 33 35 28 32 45 40 42 40 35 37 33 31 29 29 27 22 24 24 22 21 20 26 20 29 32
14 13 16 20 30 31 31 32 34 35 35 38 40 40 37 37 36 32 31 30 30 26 26 25 23 22 18 18 21 18 24 30
18 17 17 20 24 28 27 26 27 29 31 39 40 40 38 36 35 34 30 29 29 28 28 26 22 21 15 15 16 14 25 30
11 19 18 21 24 29 33 28 24 17 23 36 44 43 41 39 37 33 30 30 31 26 28 25 20 19 14 10 14 10 24 27
12 10 15 19 23 26 30 33 29 25 20 25 37 47 46 41 39 37 33 34 30 24 27 23 21 17 15 11 11 13 11 25
9 13 13 14 18 21 22 25 24 25 14 14 23 33 41 42 41 40 38 35 29 23 24 21 21 19 17 14 12 12 11 12
8 10 13 14 16 17 22 26 25 24 22 20 20 22 30 41 42 38 38 36 31 26 24 23 22 22 21 19 16 15 16 15
14 12 10 13 13 16 19 21 24 28 29 24 21 22 29 28 36 37 35 37 32 30 29 28 27 25 25 25 23 20 20 21

GFSFLT1_500_spd_099.txt.gz
Wind_Speed
41 43 44 46 48 50 53 57 58 63 68 68 67 65 65 62 50 49 47 48 44 41 43 41 43 35 31 26 24 25 28 30
42 43 44 46 50 54 56 57 62 67 70 74 74 68 68 59 52 51 47 49 42 41 42 42 43 36 30 26 24 27 30 31
42 45 47 49 53 57 55 56 57 63 68 67 68 67 68 66 59 49 48 47 38 39 41 42 41 37 29 25 25 29 30 32
41 44 48 51 57 57 55 52 50 49 49 54 59 63 66 64 62 53 48 46 42 45 43 42 40 36 27 26 27 31 31 31
42 46 52 56 56 52 49 48 48 49 47 47 52 56 55 52 46 41 39 45 48 46 48 45 42 34 26 28 31 32 30 29
43 49 56 54 48 46 44 43 44 44 46 45 51 47 41 43 38 34 38 46 47 49 56 50 39 29 27 31 32 31 29 29
45 48 44 37 35 37 32 37 41 39 39 37 43 39 39 45 40 39 43 42 45 48 37 50 27 24 28 31 29 28 27 29
46 39 33 34 32 27 23 28 32 31 31 34 36 35 37 37 36 36 36 41 37 31 32 29 22 24 26 28 28 26 28 27
42 35 29 33 27 27 25 24 27 31 32 36 38 36 39 34 34 36 41 43 38 33 30 23 23 25 24 28 27 27 28 24
37 35 29 29 21 24 22 25 26 29 33 30 28 38 35 33 38 41 41 41 42 40 32 27 27 24 25 29 27 25 24 23
35 32 26 23 21 20 21 24 26 31 34 36 32 37 36 36 39 43 42 45 41 36 33 24 26 24 26 29 28 27 26 25
34 27 22 21 20 21 16 18 22 28 35 39 34 36 34 37 35 35 39 46 40 45 28 27 27 26 29 30 28 29 28 27
30 29 19 17 19 15 20 22 21 26 31 39 31 32 34 35 34 36 42 44 43 30 27 28 30 27 30 29 29 28 27 28
25 25 20 16 18 14 18 25 25 28 26 37 30 30 28 38 38 43 44 44 41 33 31 31 29 29 32 31 29 27 27 28
28 22 19 17 17 18 12 22 24 27 25 33 36 33 33 34 39 43 42 41 45 35 33 33 30 31 32 30 29 28 29 30
20 18 16 16 16 16 14 14 15 27 17 23 26 27 37 34 38 43 35 38 42 37 35 35 31 30 30 28 28 28 27 28
16 15 14 15 15 13 14 15 14 20 21 17 20 16 23 25 35 41 40 43 46 40 38 37 35 30 26 25 28 28 27 26
17 13 11 10 11 12 13 14 13 18 21 15 19 16 20 24 32 40 43 46 48 42 40 41 37 29 24 24 26 26 26 25
17 14 9 9 6 8 13 11 10 14 18 20 20 20 17 24 32 39 34 37 48 42 43 42 38 34 29 23 23 24 25 25

GFSFLT1_500_spd_102.txt.gz
Wind_Speed
41 41 41 41 41 41 44 46 47 50 51 52 53 56 58 63 65 62 55 48 48 48 49 49 48 47 47 43 37 38 31 29
40 40 40 40 41 42 44 46 49 50 52 55 59 62 64 68 67 67 62 59 55 52 49 48 47 48 47 45 36 35 31 30
40 40 40 40 41 42 45 49 50 53 55 58 61 62 66 69 69 68 63 59 53 53 50 47 45 48 44 45 39 33 32 31
41 41 40 41 42 45 46 52 57 58 61 61 61 59 60 62 68 63 58 55 54 51 48 46 45 48 45 45 41 34 31 32
41 41 42 41 44 49 51 55 57 60 60 55 48 47 45 46 55 51 51 54 55 55 54 47 45 49 47 47 42 35 33 32
42 43 43 44 46 49 52 51 54 49 48 49 47 45 43 47 47 48 49 48 51 49 50 59 42 52 47 45 46 38 34 34
42 42 42 45 48 49 51 46 40 44 46 47 46 43 41 43 40 39 42 45 43 39 43 44 42 48 53 48 49 40 37 32
40 39 39 43 47 51 42 38 42 38 34 32 36 36 37 36 36 38 40 39 43 41 38 39 39 42 42 51 49 38 34 30
37 37 36 41 48 41 36 35 34 36 29 30 29 32 33 35 37 37 36 40 43 41 42 36 35 42 48 43 40 33 30 30
35 35 35 40 43 35 34 29 30 29 26 27 27 26 29 35 35 35 34 36 40 42 40 40 30 19 28 32 27 29 29 27
34 36 34 40 38 31 33 26 26 28 26 24 26 29 35 37 38 38 35 34 37 41 36 44 27 24 33 27 25 29 27 26
34 37 36 40 35 32 26 27 22 23 25 28 30 31 35 31 35 37 33 33 33 40 42 39 35 37 38 29 29 29 27 28
35 39 40 39 34 29 22 22 23 23 25 28 32 30 34 31 34 33 35 35 36 41 42 39 44 41 30 29 26 26 27 28
36 37 39 36 35 30 24 23 25 29 24 24 29 32 34 31 34 35 35 37 37 40 40 40 45 30 31 28 26 27 28 29
40 38 40 35 35 29 28 26 18 24 26 29 21 27 33 25 31 29 40 35 37 38 36 33 36 33 31 30 27 29 30 32
41 37 37 32 32 29 26 26 18 24 31 21 20 32 34 25 28 23 37 36 36 36 36 34 34 33 34 31 26 29 32 33
42 36 34 31 28 26 22 21 21 18 18 20 18 24 35 35 33 34 36 41 41 41 40 40 40 38 35 33 28 28 33 33
33 26 29 29 25 24 21 18 17 17 19 18 23 18 27 27 20 21 23 33 33 37 36 39 40 42 40 35 28 28 32 34
24 25 26 23 20 15 12 14 14 15 17 20 23 21 16 18 21 27 33 26 31 37 40 42 45 44 42 36 32 30 31 31

GFSFLT1_500_spd_105.txt.gz
Wind_Speed
37 41 42 41 39 40 42 43 44 45 43 43 44 46 49 50 52 51 51 53 54 54 52 47 49 48 50 49 49 48 49 44
41 41 42 42 41 39 37 37 40 42 44 45 45 45 47 50 51 54 55 58 59 59 57 49 48 44 46 50 53 51 51 47
44 45 43 42 41 39 38 39 41 45 45 45 46 48 51 54 56 59 62 64 66 66 59 51 52 50 51 48 51 51 51 48
45 45 45 43 41 39 40 41 43 46 49 48 50 54 57 61 63 64 68 67 66 60 68 52 53 50 44 46 50 53 52 48
43 44 44 40 39 40 41 43 46 48 49 52 53 57 60 64 67 69 62 60 62 62 58 60 54 52 48 47 50 51 51 48
43 42 40 39 39 40 42 44 47 51 49 52 57 60 61 55 53 55 52 53 54 52 51 56 55 54 56 54 57 51 51 46
42 41 41 41 42 42 43 45 47 49 48 51 55 53 47 48 51 51 48 48 46 45 50 55 54 62 57 57 60 56 52 46
41 42 44 44 43 42 43 44 45 46 46 47 49 44 45 47 48 48 49 45 43 41 46 51 59 59 53 44 54 51 45 46
39 42 45 44 42 41 42 41 42 45 43 46 42 44 43 41 39 41 43 41 42 38 42 46 50 53 41 45 44 39 45 40
38 41 43 42 40 40 39 38 41 43 42 38 39 37 37 35 36 40 40 38 40 38 42 44 46 46 47 43 46 47 38 40
38 39 40 39 39 36 35 38 41 38 37 37 37 34 32 33 34 40 39 37 35 37 39 40 42 45 43 42 41 38 44 38
38 37 37 37 37 33 35 37 38 38 35 34 32 29 31 31 31 31 33 34 36 38 34 40 46 41 41 39 33 46 45 46
36 35 36 36 36 34 35 37 39 37 36 34 30 29 30 31 28 32 35 35 37 40 33 36 40 40 36 31 35 41 40 37
36 34 35 36 38 37 36 40 41 39 35 35 31 28 30 35 31 32 32 31 38 36 37 34 37 36 41 35 32 20 30 25
37 36 36 36 37 39 40 44 43 39 36 36 32 30 26 26 30 32 34 29 38 38 38 34 33 31 34 34 35 35 30 32
41 41 41 40 39 41 43 45 41 40 36 38 30 30 31 28 32 34 29 24 34 34 31 31 34 36 30 33 36 37 36 31
49 48 47 45 44 43 44 42 38 34 32 31 28 26 32 31 35 37 19 21 27 32 35 36 35 37 29 32 40 38 36 29
53 52 50 48 45 42 38 36 34 32 30 28 25 20 26 25 30 35 28 23 30 34 37 32 33 32 31 29 30 38 36 33
37 33 31 26 28 30 32 33 32 24 20 25 21 22 18 16 19 31 29 28 33 32 36 39 38 33 31 35 33 40 39 36

GFSFLT1_500_spd_108.txt.gz
Wind_Speed
52 51 50 48 45 41 40 41 40 40 43 44 45 46 46 45 45 45 46 46 46 48 47 45 46 46 47 47 44 46 48 49
54 51 45 45 44 40 39 39 40 41 42 42 43 42 42 42 43 45 47 48 47 49 48 49 46 52 54 48 47 47 49 50
55 49 45 46 44 42 41 40 41 40 41 41 40 40 40 41 44 45 48 50 49 50 51 53 55 64 64 53 50 45 48 49
56 48 47 48 46 43 42 41 40 41 41 41 40 41 40 44 47 50 51 53 56 57 59 60 58 69 63 50 55 51 50 54
51 48 48 47 45 44 42 41 41 41 41 42 42 43 44 48 51 53 55 57 59 63 65 68 66 66 67 64 48 47 43 44
45 46 46 45 43 42 43 44 42 40 40 41 42 43 43 46 50 54 60 64 66 70 69 72 72 69 71 69 67 55 54 47
44 44 44 42 41 42 43 42 40 40 41 42 43 41 44 47 53 60 61 59 58 60 54 57 64 64 67 65 69 68 50 49
41 41 44 42 43 42 41 42 41 41 41 41 40 40 46 52 56 55 54 50 54 55 60 45 46 46 49 52 54 51 49 47
35 38 39 40 41 42 42 43 39 37 38 40 41 44 50 53 51 46 48 49 51 45 29 34 40 42 43 51 53 50 53 49
35 37 39 43 43 44 43 39 36 36 37 39 40 44 50 47 44 46 42 44 42 41 38 41 46 42 43 48 56 55 51 56
39 37 41 42 42 43 42 38 35 37 38 36 41 45 44 41 41 43 40 37 36 39 42 43 42 42 42 43 51 48 49 50
39 42 42 43 42 42 39 37 35 36 35 36 40 44 39 39 39 36 36 33 37 39 41 39 41 38 40 41 42 43 35 47
38 43 43 42 41 39 38 38 36 35 36 40 40 43 38 38 37 33 29 32 35 41 39 37 36 34 32 36 39 39 40 42
46 44 42 38 38 37 38 37 36 35 38 42 42 43 38 37 36 34 28 29 26 30 34 35 37 37 33 36 36 34 37 41
42 40 37 38 36 36 39 37 36 38 40 44 45 44 38 38 37 35 32 32 31 32 36 36 34 38 29 30 33 28 28 26
39 38 37 36 34 37 37 38 40 41 42 46 48 44 36 38 41 34 29 29 33 33 28 31 31 39 31 26 28 33 35 30
41 40 39 38 39 39 39 40 40 43 44 48 48 36 33 36 34 39 30 36 23 30 28 37 31 33 28 29 30 31 28 26
48 46 46 47 46 46 45 44 44 43 45 46 37 36 31 31 29 24 27 29 32 27 25 35 42 28 32 34 31 32 29 33
47 46 44 44 44 41 39 39 38 39 38 34 34 34 28 25 20 19 25 24 25 23 27 26 30 33 32 35 34 30 35 36

GFSFLT1_500_spd_111.txt.gz
Wind_Speed
64 60 55 53 48 49 50 50 46 44 44 44 43 43 43 44 44 44 44 44 44 44 46 44 42 42 43 44 46 50 49 46
65 62 58 55 50 48 48 49 47 44 42 42 42 42 43 43 43 43 44 43 43 40 40 44 47 46 46 47 49 54 53 47
61 56 55 55 52 47 48 47 47 46 43 41 40 41 41 41 41 40 40 41 42 42 43 45 47 48 49 51 53 59 59 55
55 50 46 48 44 43 46 47 47 46 44 42 41 40 40 40 40 39 38 40 43 45 47 50 49 53 55 57 60 67 82 75
39 51 56 49 42 44 43 45 46 45 43 42 41 41 41 42 40 40 40 43 46 49 51 54 58 57 62 62 64 62 70 56
38 53 47 35 41 42 42 44 45 44 43 42 42 42 42 41 41 42 44 47 49 50 51 55 61 64 65 66 71 72 66 61
41 53 43 39 40 41 43 43 43 42 42 41 42 43 43 42 42 42 42 45 48 52 57 62 65 66 64 63 73 72 72 71
45 50 47 46 44 38 42 40 41 40 39 40 41 44 41 40 42 43 43 47 53 57 59 63 57 55 56 65 70 62 65 68
45 43 44 45 40 40 42 42 41 41 42 43 40 41 40 40 41 41 44 51 54 56 54 52 53 57 58 70 62 46 52 56
39 38 37 29 34 37 37 37 39 40 40 40 41 40 39 39 39 42 46 52 51 46 49 48 49 51 40 33 34 40 45 45
46 45 30 29 38 40 39 39 40 43 43 40 40 39 39 39 40 42 46 48 44 44 46 45 43 38 38 37 31 36 39 42
42 36 37 40 34 37 41 44 43 41 41 40 39 39 38 38 41 43 44 45 42 42 39 36 31 33 35 30 32 33 38 41
47 42 40 37 38 38 42 42 43 41 39 39 38 36 38 40 42 43 45 43 39 38 36 31 33 35 32 33 33 34 36 35
43 45 43 44 45 46 51 47 42 39 38 39 38 38 38 42 42 42 46 44 41 37 35 34 34 38 37 37 34 34 34 31
36 40 45 49 51 52 48 44 43 42 41 40 38 38 39 43 43 44 46 44 38 35 37 34 33 36 38 43 34 30 33 35
48 52 51 50 47 44 40 38 41 41 41 40 40 40 41 43 45 46 49 38 35 38 33 37 34 32 33 34 36 34 32 34
52 53 50 45 42 40 40 39 38 40 41 40 42 42 43 45 47 47 42 35 33 37 32 30 28 30 36 30 26 28 28 30
48 49 50 48 44 43 41 40 38 38 39 41 42 44 47 48 49 41 37 32 29 33 32 35 27 26 26 32 26 29 30 28
49 49 48 45 42 40 40 39 37 35 37 37 37 41 42 42 37 36 32 27 27 31 31 30 32 22 27 34 30 36 31 31

GFSFLT1_500_spd_114.txt.gz
Wind_Speed
66 69 69 68 68 65 60 53 52 52 50 48 46 44 45 45 46 46 45 45 44 43 42 42 42 45 49 48 44 44 46 49
59 62 64 69 70 68 61 54 54 52 52 52 52 50 46 45 46 46 46 45 45 44 43 42 42 46 43 47 50 48 51 53
56 52 51 52 59 62 60 55 55 54 51 51 51 50 47 45 45 45 45 45 44 44 43 42 42 42 44 45 44 48 49 52
53 48 49 43 44 44 50 49 55 56 54 51 50 49 47 46 44 44 45 43 43 43 43 42 42 44 46 48 49 52 54 56
71 58 46 48 50 49 52 48 59 55 53 49 49 48 46 45 44 44 43 42 42 43 44 44 45 47 48 51 53 57 60 59
40 54 55 53 46 48 50 52 43 49 52 47 46 47 45 44 44 43 43 43 43 45 46 47 49 50 51 53 56 60 63 62
49 40 41 40 42 41 40 43 45 49 50 45 46 45 44 44 43 44 45 44 45 48 49 50 52 52 53 54 57 63 67 72
50 43 37 44 43 49 45 42 40 46 40 41 46 45 43 43 44 45 44 45 48 50 51 51 51 54 58 62 63 66 68 71
47 46 44 54 54 52 43 47 50 49 46 43 40 40 41 42 44 46 47 49 48 48 49 49 55 60 64 61 58 58 59 60
47 50 50 45 47 44 41 46 51 46 45 44 41 38 39 40 45 46 43 46 47 45 48 52 57 54 54 51 51 57 55 53
44 47 46 50 40 42 43 37 37 39 37 41 40 36 39 40 43 44 43 45 45 47 48 51 51 51 51 51 52 52 52 46
28 25 32 45 40 40 40 38 32 29 29 34 39 42 40 41 43 44 43 44 45 49 45 43 46 48 47 47 45 41 38 38
34 33 31 35 38 40 42 41 40 40 39 42 42 41 40 42 42 43 44 45 46 47 46 43 45 45 43 41 38 36 38 37
26 33 42 43 41 40 40 42 44 44 47 51 48 41 38 41 41 42 45 44 47 44 45 43 43 43 42 40 36 37 36 38
32 29 44 41 40 40 42 44 49 52 53 49 46 41 40 41 40 42 46 47 45 47 45 45 40 39 39 39 39 41 43 38
45 44 43 43 43 43 47 53 54 54 49 44 41 39 40 41 41 44 45 47 46 43 43 44 38 37 36 38 38 42 41 37
43 50 52 53 55 56 56 52 47 42 41 41 40 40 42 42 44 44 44 46 47 44 45 39 38 30 32 35 39 31 36 37
43 44 45 47 49 50 47 44 43 43 42 41 41 41 43 44 45 45 46 48 47 45 41 40 33 27 27 28 31 32 29 34
45 47 49 49 49 48 47 48 49 48 44 40 39 40 42 42 46 48 49 49 46 40 38 36 33 26 28 32 28 30 29 33

GFSFLT1_500_spd_117.txt.gz
Wind_Speed
74 76 75 73 70 70 70 66 65 65 61 58 54 54 53 53 52 51 51 50 48 45 45 43 43 44 48 40 46 44 45 42
76 78 76 76 75 73 70 68 64 65 64 59 58 55 53 54 53 52 52 50 50 48 46 44 44 43 42 42 44 41 45 41
69 71 67 61 61 57 51 57 61 62 62 55 54 56 55 54 54 53 55 53 51 50 48 46 44 44 43 43 44 44 45 46
59 61 56 50 53 55 51 55 53 48 48 51 57 57 56 56 54 53 53 53 52 50 49 47 45 45 45 45 45 46 48 47
49 52 50 49 55 58 50 50 41 47 48 52 52 54 56 54 54 52 50 50 51 50 49 47 45 45 46 47 48 48 49 50
49 48 45 49 48 46 52 46 42 46 47 51 53 51 55 55 54 50 50 50 50 50 49 48 47 46 47 49 51 52 52 54
43 41 43 42 54 51 51 59 53 46 44 42 42 49 49 56 48 47 47 48 49 50 49 48 47 48 51 52 54 55 55 56
42 40 37 37 41 45 44 43 48 41 41 40 38 40 41 47 47 42 46 46 48 49 49 49 49 51 51 53 56 55 55 55
34 41 41 39 33 37 34 37 40 40 45 42 43 46 47 46 45 46 45 47 47 47 48 48 48 51 53 55 56 55 58 57
31 34 35 30 40 33 40 38 44 49 42 31 33 34 35 41 45 46 47 50 48 47 47 50 52 53 54 54 54 58 58 61
39 32 45 44 45 38 44 42 45 43 36 39 32 28 26 28 36 48 49 50 52 52 49 49 50 52 52 50 52 58 62 60
20 29 29 32 43 51 51 50 48 44 40 38 32 32 31 33 35 34 44 42 45 47 48 48 50 49 49 51 51 56 56 58
30 25 21 17 15 24 27 26 28 31 33 40 43 37 37 38 40 37 37 42 46 46 45 46 49 47 43 47 53 55 56 54
34 36 34 25 27 29 31 35 33 35 38 40 42 42 43 47 45 39 37 41 41 44 44 45 47 47 44 44 47 53 56 51
35 37 38 39 39 34 38 38 38 43 44 45 45 45 47 50 47 44 39 40 40 43 45 48 46 43 46 50 51 54 49 47
39 39 40 42 44 44 39 42 42 43 44 47 50 49 52 51 50 47 42 40 41 44 47 47 46 43 45 46 52 47 45 42
38 37 37 37 40 45 47 50 52 52 53 51 48 48 43 42 44 42 41 39 40 43 45 46 46 44 45 45 45 41 42 37
40 41 41 42 42 40 40 44 49 53 51 49 48 45 42 42 43 44 43 41 40 39 41 44 43 44 44 44 38 39 35 32
41 42 43 43 42 44 47 46 44 45 46 43 42 41 41 41 44 44 46 47 44 43 44 45 47 47 46 46 37 37 30 27

GFSFLT1_500_spd_120.txt.gz
Wind_Speed
61 61 62 63 63 62 64 67 71 67 64 66 66 63 58 58 60 60 58 55 55 53 50 52 51 48 48 51 53 45 49 58
64 66 69 70 71 71 71 70 68 66 60 58 61 64 59 59 61 63 62 59 57 55 52 50 51 51 51 53 50 51 50 47
70 72 72 72 71 67 63 65 61 55 51 55 55 57 57 57 60 61 63 61 60 57 56 54 53 51 51 52 53 52 49 49
68 68 68 65 59 55 52 47 46 46 50 51 49 47 46 54 55 56 61 61 59 59 58 56 54 54 51 51 51 50 48 49
60 60 58 54 51 50 48 43 44 52 44 52 51 48 44 43 48 54 60 59 57 58 56 56 55 56 53 50 50 49 49 49
53 52 51 48 43 38 38 39 43 49 55 53 46 35 38 40 43 48 52 54 59 57 57 53 54 54 53 49 48 49 50 49
50 47 46 39 38 34 34 33 35 46 38 42 43 35 36 45 38 37 45 46 52 59 56 52 52 52 52 50 49 48 50 51
43 41 35 30 38 31 30 33 30 40 46 43 42 36 37 38 41 41 38 39 44 55 55 54 54 52 52 50 50 50 51 53
39 36 38 40 33 38 38 29 48 36 46 40 38 32 35 31 34 35 34 39 41 55 49 48 52 52 51 51 52 51 54 54
22 25 29 35 32 39 40 34 41 29 29 29 30 31 36 25 23 20 20 29 39 43 56 57 52 52 51 50 51 52 51 52
29 31 31 27 32 35 43 48 36 42 35 34 29 30 35 32 25 25 25 29 30 33 45 45 48 50 57 57 53 52 54 55
31 27 28 30 29 33 40 45 49 45 44 42 41 44 43 46 30 30 28 27 30 32 34 47 45 46 49 50 51 51 51 50
29 31 32 31 32 31 29 20 34 39 36 31 28 26 29 31 32 33 34 29 30 29 33 35 40 50 46 49 49 49 49 49
37 32 33 34 35 34 35 30 28 27 24 30 31 33 34 37 37 37 39 40 37 34 32 35 36 40 43 45 48 47 49 48
32 34 35 37 39 37 37 36 37 35 35 35 34 35 39 40 39 43 40 40 41 41 36 34 38 39 42 45 46 45 44 44
36 37 37 35 35 37 37 38 37 36 38 39 41 41 43 44 44 45 46 44 44 40 40 36 35 39 41 44 43 45 43 45
39 38 36 35 35 34 34 33 33 34 35 39 41 40 42 45 41 40 45 46 46 43 42 37 35 35 36 37 40 40 41 46
36 34 36 37 37 36 34 34 32 31 31 32 33 32 33 34 36 39 40 41 41 43 41 38 37 37 37 37 40 41 43 44
34 33 32 31 30 29 27 30 30 30 29 26 21 20 21 21 25 27 29 31 33 41 45 44 43 43 41 40 39 41 42 43